GFSFLT1_850_temp_000.txt.gz
Temp
17 17 17 18 18 17 16 15 14 14 14 14 13 13 13 13 12 12 12 12 11 11 11 11 10 9 10 10 9 10 9 9
17 17 18 17 17 16 15 14 15 14 13 13 13 12 12 12 11 12 12 11 11 11 11 10 10 9 9 10 9 9 9 9
16 16 16 15 14 14 14 14 14 14 12 13 12 12 11 12 11 12 11 11 11 10 9 8 8 8 8 8 8 8 9 8
16 15 14 15 15 15 14 14 14 13 12 11 10 10 11 10 10 10 11 10 10 10 9 8 8 7 8 8 8 8 8 8
15 15 13 14 15 14 14 13 12 11 11 10 10 9 9 10 9 8 9 9 10 10 9 9 9 8 6 6 7 7 7 7
13 13 12 11 11 12 11 10 10 11 10 10 9 9 8 7 7 7 7 7 8 9 9 8 7 6 5 6 5 5 5 5
12 11 11 11 10 11 11 10 10 10 10 9 9 8 7 7 6 6 6 6 6 5 6 6 5 4 3 3 3 2 2 2
12 12 12 11 10 11 11 11 9 9 9 9 8 8 6 6 6 5 4 5 4 4 4 3 3 2 1 1 1 0 -0 -1
12 12 11 10 10 11 11 10 8 8 8 7 7 6 5 5 4 4 3 3 3 3 2 1 1 1 1 0 0 -1 -2 -1
12 11 11 10 9 8 9 10 9 8 7 6 6 5 4 4 4 3 2 2 2 1 0 0 -0 -1 -1 -2 -2 -2 -3 -3
12 12 10 9 9 8 9 8 7 6 6 5 4 4 3 3 2 1 1 1 0 -0 -0 -1 -1 -2 -2 -3 -2 -2 -3 -3
12 11 10 9 8 8 7 6 6 5 5 4 3 2 2 1 1 0 -0 -1 -1 -1 -1 -2 -2 -3 -3 -3 -4 -3 -3 -3
11 10 9 8 8 7 6 5 5 5 5 3 2 1 1 0 -0 -1 -1 -1 -2 -2 -2 -3 -3 -3 -4 -4 -4 -3 -3 -3
10 10 9 7 7 6 5 5 5 4 3 2 1 1 0 -1 -1 -2 -2 -3 -3 -3 -3 -3 -4 -4 -4 -4 -4 -4 -4 -4
9 8 7 6 6 5 5 4 3 4 2 1 0 -0 -1 -2 -2 -3 -3 -3 -3 -3 -3 -4 -4 -4 -4 -4 -4 -4 -4 -5
7 6 5 5 4 4 3 2 3 3 1 -0 -1 -2 -2 -2 -2 -3 -3 -4 -4 -4 -4 -4 -5 -5 -4 -5 -6 -5 -5 -5
5 4 4 4 4 3 2 2 1 1 -0 -1 -2 -2 -2 -2 -3 -3 -3 -4 -4 -4 -5 -5 -5 -5 -6 -7 -7 -7 -7 -6
4 3 4 4 3 2 2 2 0 -0 -1 -2 -2 -2 -2 -3 -3 -3 -4 -4 -5 -5 -5 -6 -6 -6 -7 -7 -8 -8 -8 -8
3 4 4 3 3 3 2 1 0 -1 -1 -2 -2 -3 -3 -3 -4 -4 -4 -5 -5 -6 -6 -7 -7 -7 -8 -8 -9 -9 -9 -9

GFSFLT1_850_temp_003.txt.gz
Temp
22 20 20 19 19 18 18 17 16 15 15 14 14 14 13 13 13 13 12 11 11 10 11 10 10 11 11 11 11 11 11 11
20 19 18 18 18 18 18 16 15 15 15 14 14 14 13 13 13 11 11 11 10 10 10 10 10 10 10 10 10 10 10 10
19 18 17 18 17 17 16 15 14 14 14 13 12 12 12 12 12 11 11 10 10 10 10 9 9 9 9 9 9 9 9 9
18 17 16 15 15 15 14 13 12 12 12 12 12 12 12 12 11 10 10 9 9 9 8 8 8 8 8 8 8 8 8 8
18 17 15 14 13 13 12 12 11 11 12 11 10 10 10 9 9 9 9 8 8 8 8 7 6 6 7 7 7 7 7 7
16 15 14 13 12 11 12 11 11 10 10 9 9 9 9 8 8 8 7 8 7 7 7 6 5 5 5 5 5 4 4 5
15 14 14 12 11 11 11 11 11 10 10 9 9 10 9 7 8 7 7 7 6 6 5 5 4 4 4 4 4 3 2 1
15 15 14 12 12 11 11 11 11 11 10 9 8 8 8 8 7 7 5 5 5 5 4 4 3 3 3 3 2 2 1 0
14 14 13 13 12 11 10 10 10 10 9 9 8 8 7 6 6 4 4 4 4 4 3 3 3 2 2 1 0 -0 -1 -1
14 13 13 12 11 11 10 9 10 9 8 8 7 6 5 5 4 3 3 3 3 3 2 2 1 1 -0 -1 -1 -1 -2 -2
14 14 13 12 11 11 10 9 9 9 8 7 6 5 4 4 3 3 2 2 2 1 1 -0 -1 -1 -1 -1 -2 -2 -2 -3
14 13 12 12 11 10 9 9 8 7 6 5 4 4 4 3 3 2 1 -0 -0 -1 -0 -1 -1 -2 -2 -3 -3 -3 -3 -3
13 13 12 11 10 9 9 7 5 5 4 4 4 3 3 3 2 0 -1 -1 -2 -2 -2 -2 -3 -3 -3 -4 -4 -4 -3 -3
11 11 10 10 9 8 6 5 4 3 3 3 3 3 2 1 -0 -1 -2 -2 -2 -2 -2 -3 -3 -3 -3 -3 -3 -3 -3 -3
10 9 9 8 6 5 5 5 4 3 3 3 2 1 1 0 -0 -1 -1 -1 -2 -2 -2 -3 -3 -3 -3 -3 -3 -4 -4 -4
8 8 7 5 6 6 5 4 3 3 2 2 1 0 0 -0 -1 -1 -2 -2 -2 -2 -3 -3 -3 -3 -4 -5 -5 -6 -6 -5
6 6 6 5 6 5 5 4 4 3 2 2 1 0 -0 -1 -1 -2 -2 -2 -2 -3 -3 -3 -4 -4 -5 -6 -6 -7 -8 -7
6 5 6 5 5 5 5 5 4 2 2 2 1 -0 -1 -1 -2 -2 -2 -2 -3 -3 -4 -4 -4 -5 -6 -7 -7 -8 -9 -9
5 6 5 5 5 5 5 4 4 3 2 2 1 -1 -2 -2 -2 -2 -2 -3 -3 -4 -4 -5 -6 -6 -8 -8 -9 -10 -10 -9

GFSFLT1_850_temp_006.txt.gz
Temp
22 21 21 20 20 19 19 17 16 14 15 15 14 14 14 14 13 13 12 11 11 11 10 11 10 10 10 10 10 10 10 10
20 19 19 19 18 18 18 16 15 15 15 14 14 14 14 13 12 12 11 11 11 10 9 9 10 10 9 9 9 9 9 9
19 18 18 18 17 16 15 15 14 14 14 13 13 12 12 12 11 11 10 10 9 9 9 9 8 8 8 8 8 8 8 9
17 16 15 15 15 15 14 13 13 13 12 12 11 11 11 11 11 11 10 9 9 8 8 8 8 7 7 7 7 7 7 7
17 16 14 13 13 13 12 12 11 12 12 12 12 11 10 10 11 9 9 8 8 7 7 7 7 6 6 5 5 5 5 5
16 15 14 12 12 12 12 12 11 11 11 10 9 9 9 9 8 8 8 7 7 7 6 6 6 5 5 4 4 4 4 3
15 14 13 12 12 11 11 12 11 11 10 10 10 9 8 8 8 7 7 7 6 5 5 4 4 3 3 3 3 3 3 2
16 15 14 13 12 12 12 11 11 11 11 10 9 9 8 7 7 6 6 5 4 4 3 3 3 3 2 2 2 1 1 1
15 14 13 13 12 12 12 11 10 10 10 9 8 7 7 6 5 5 4 3 3 3 2 2 2 2 1 1 1 1 0 0
14 14 14 13 12 12 11 11 10 9 9 8 7 7 5 5 4 3 3 2 2 2 1 1 0 0 0 -0 -0 -1 -1 -1
15 14 13 13 12 11 10 10 9 9 8 7 7 6 4 4 3 3 2 2 1 0 -1 -1 -2 -2 -2 -2 -2 -2 -2 -3
14 13 12 11 10 10 9 9 8 7 6 5 5 4 4 3 3 2 1 1 0 -1 -1 -2 -2 -3 -2 -2 -3 -3 -3 -3
12 11 10 10 9 9 8 7 6 5 5 4 4 4 3 2 2 1 -0 -1 -1 -2 -2 -2 -2 -2 -2 -3 -3 -3 -3 -4
11 10 9 9 8 7 6 6 5 5 4 4 3 3 2 1 1 0 -1 -1 -1 -1 -2 -2 -2 -3 -3 -3 -3 -3 -4 -4
10 9 8 7 7 6 6 6 5 5 4 3 3 2 1 1 0 -0 -1 -1 -2 -2 -2 -2 -3 -3 -3 -3 -4 -4 -4 -5
8 7 7 7 6 6 6 6 5 5 3 2 3 3 1 1 0 -1 -1 -2 -2 -2 -2 -3 -3 -3 -4 -4 -5 -5 -6 -6
7 7 6 6 6 6 6 5 5 5 3 3 3 1 1 0 -1 -1 -2 -2 -2 -2 -3 -3 -4 -4 -5 -5 -6 -6 -7 -8
6 6 6 6 6 5 5 5 5 5 4 4 2 0 -0 -1 -1 -2 -2 -2 -2 -3 -3 -4 -4 -5 -6 -6 -7 -8 -9 -9
6 6 6 6 5 5 5 4 4 4 4 3 1 0 -0 -1 -1 -2 -3 -3 -3 -3 -3 -4 -5 -6 -6 -7 -8 -9 -9 -10

GFSFLT1_850_temp_009.txt.gz
Temp
20 20 19 19 18 17 16 15 14 14 15 14 14 14 13 13 13 12 12 12 11 11 11 10 9 9 9 10 10 9 9 9
18 18 18 18 17 15 14 14 13 14 14 14 14 13 13 12 12 12 12 11 11 11 10 9 9 8 8 8 8 8 8 8
16 16 16 15 14 14 13 13 14 14 14 14 13 13 12 13 13 12 11 11 10 10 9 8 8 8 8 8 7 6 7 6
16 16 15 14 14 14 13 13 13 13 13 12 12 12 12 11 11 11 9 9 9 8 8 8 7 7 7 6 6 6 5 5
15 15 14 13 12 12 13 13 13 12 12 12 11 10 10 9 9 8 8 8 8 7 7 7 7 6 6 5 5 4 4 4
14 14 14 13 13 12 12 11 12 11 11 10 10 9 9 8 8 7 7 7 7 7 6 6 5 4 4 4 3 3 3 3
14 14 13 13 13 12 12 11 11 11 10 10 9 8 8 8 8 7 7 6 6 6 5 3 3 3 2 2 2 2 2 2
14 13 13 13 12 12 11 11 11 11 10 9 9 8 8 7 6 6 5 5 4 3 3 2 2 2 1 1 1 0 -0 -0
14 14 14 13 12 12 11 11 10 10 9 9 8 8 7 5 5 4 4 3 3 2 2 1 1 0 -1 -1 -1 -1 -1 -1
14 13 12 11 11 11 10 10 10 9 9 8 7 6 5 4 2 3 3 3 2 1 1 -0 -1 -1 -2 -3 -3 -3 -3 -3
13 12 11 11 11 10 10 9 9 8 7 6 6 5 4 3 3 3 2 2 1 1 -0 -1 -2 -2 -2 -3 -3 -3 -3 -3
11 11 10 9 9 9 8 8 7 7 6 6 5 4 4 4 3 3 3 1 1 -1 -2 -2 -2 -2 -2 -3 -3 -3 -3 -4
10 9 9 9 8 8 7 7 6 6 6 5 4 4 3 4 3 2 1 0 -1 -1 -1 -2 -2 -2 -3 -3 -3 -3 -3 -4
9 9 8 7 7 7 6 6 6 6 5 5 4 3 2 2 2 1 0 -0 -1 -1 -2 -2 -2 -3 -3 -3 -4 -4 -4 -4
8 8 7 7 6 6 6 6 5 5 5 5 5 4 2 2 1 -1 -2 -2 -1 -2 -2 -2 -3 -3 -3 -4 -4 -4 -4 -5
7 7 6 6 6 6 5 5 5 4 4 4 4 3 2 -0 -1 -1 -2 -2 -2 -2 -2 -3 -3 -4 -4 -4 -5 -5 -5 -6
6 6 6 6 6 5 5 4 4 4 3 3 3 2 1 0 -1 -2 -2 -2 -2 -3 -3 -3 -4 -4 -5 -5 -6 -6 -7 -8
6 6 6 6 5 5 4 3 3 3 2 2 1 1 0 -0 -1 -2 -2 -2 -3 -3 -3 -3 -4 -4 -6 -7 -7 -8 -8 -9
6 6 5 5 4 4 3 3 3 2 2 1 1 -0 -0 -1 -2 -3 -3 -3 -3 -3 -3 -4 -4 -5 -6 -7 -8 -9 -9 -10

GFSFLT1_850_temp_012.txt.gz
Temp
18 18 19 18 17 17 16 16 14 14 13 13 13 13 13 13 12 11 11 11 11 11 11 11 11 10 9 9 9 8 8 8
16 16 17 15 14 15 14 14 13 13 13 13 13 12 12 12 11 11 11 12 11 10 10 10 9 8 8 8 8 8 8 7
14 14 14 13 12 13 13 13 13 13 13 11 12 12 12 12 11 11 10 11 11 11 9 8 7 7 7 7 7 6 6 6
13 13 12 12 12 12 12 12 13 13 12 12 12 12 12 11 11 10 10 10 9 8 7 7 6 6 6 6 5 5 5 4
13 13 12 12 12 13 12 12 12 12 12 12 12 11 10 10 9 9 8 8 7 6 7 6 6 6 5 4 3 3 3 3
14 14 13 13 12 12 12 12 12 11 11 11 11 10 10 9 8 8 7 6 6 6 5 5 5 3 3 2 2 1 1 1
14 13 13 13 12 12 11 11 11 11 11 10 10 9 8 8 7 6 6 6 4 4 2 3 2 2 2 1 0 -0 -1 -0
14 14 13 12 12 11 11 10 10 10 10 9 9 8 7 6 6 5 4 3 4 3 3 2 1 1 1 -0 -1 -1 -2 -2
13 12 11 11 11 11 10 10 10 9 9 8 7 6 6 5 5 4 4 3 3 2 2 1 1 -0 -1 -2 -2 -2 -3 -3
11 11 11 11 11 10 9 9 8 8 7 7 6 6 5 5 4 4 4 3 3 2 1 1 0 -1 -2 -2 -3 -3 -3 -3
11 10 10 9 9 8 8 8 7 6 6 6 5 5 5 5 4 3 3 3 2 2 1 0 -1 -2 -2 -3 -3 -3 -3 -3
9 9 8 8 8 8 7 6 6 6 5 5 5 5 5 4 3 3 3 2 1 1 -0 -1 -1 -2 -2 -3 -3 -3 -3 -4
8 8 8 7 7 7 6 6 6 5 5 4 4 4 3 3 2 1 0 -1 -1 -2 -2 -2 -2 -2 -3 -3 -3 -4 -4 -4
8 8 8 7 6 6 6 6 5 5 5 5 4 3 3 3 2 1 -1 -2 -2 -3 -2 -2 -2 -3 -3 -3 -4 -4 -4 -5
8 8 7 6 6 6 5 5 5 5 4 4 3 3 2 1 0 0 -0 -1 -2 -2 -2 -3 -3 -3 -3 -4 -4 -5 -5 -6
7 7 6 6 6 5 5 5 4 4 3 3 2 2 1 1 0 -0 -1 -2 -2 -3 -3 -3 -3 -3 -4 -5 -5 -6 -6 -7
6 6 6 5 5 5 4 4 4 3 2 2 2 1 1 -0 -1 -2 -2 -2 -3 -4 -4 -3 -3 -4 -5 -6 -6 -7 -7 -8
6 6 5 5 5 4 4 3 3 2 1 1 1 0 -0 -1 -2 -2 -3 -3 -3 -3 -3 -3 -4 -5 -6 -6 -7 -8 -9 -9
6 5 5 5 4 4 3 2 2 2 1 1 1 0 -1 -2 -3 -3 -3 -4 -4 -3 -4 -4 -5 -6 -6 -7 -8 -9 -10 -11

GFSFLT1_850_temp_015.txt.gz
Temp
17 17 17 17 16 16 13 13 12 13 12 11 12 13 12 12 12 11 11 11 11 11 11 10 10 10 9 9 8 8 7 7
16 17 17 15 14 16 13 12 12 11 11 11 11 11 11 11 11 11 10 11 10 10 10 10 9 8 8 7 7 6 6 6
14 14 14 13 12 13 12 11 11 11 11 11 11 11 11 11 11 10 10 10 10 10 9 9 8 7 6 6 5 5 5 4
13 14 14 13 13 12 12 12 12 12 12 12 12 12 11 11 11 11 10 9 9 8 7 7 6 5 5 4 4 3 3 2
13 13 12 12 12 12 12 12 12 12 12 12 11 11 11 10 10 9 8 8 7 6 5 4 3 4 3 3 2 2 1 1
13 12 12 12 12 12 12 11 11 11 10 10 10 10 9 9 8 7 6 5 5 5 4 4 4 3 2 2 2 1 -0 -1
12 12 12 11 11 11 11 10 10 10 10 10 9 9 8 7 6 6 6 5 4 4 4 3 3 2 1 1 1 -0 -1 -1
12 11 11 11 11 10 10 10 10 9 9 8 8 6 6 6 5 5 4 4 4 3 3 2 2 1 1 -0 -1 -2 -2 -3
11 11 11 11 10 10 10 9 9 8 7 7 6 6 5 5 4 4 4 3 3 3 2 2 1 1 -0 -1 -2 -2 -3 -3
11 11 10 10 10 9 9 9 8 7 6 6 5 5 5 4 4 3 3 3 2 0 -1 -2 -1 -1 -2 -2 -3 -3 -3 -3
10 9 9 9 9 9 9 8 7 6 6 6 5 4 4 3 3 3 3 2 1 -0 -1 -2 -3 -2 -2 -2 -3 -3 -3 -4
9 9 9 9 8 8 7 6 6 6 5 5 5 4 3 3 3 2 1 1 -0 -0 -1 -2 -3 -2 -2 -3 -3 -3 -4 -4
8 8 8 8 7 6 6 6 6 5 5 5 4 3 3 2 2 1 0 -0 -0 -0 -1 -2 -2 -2 -3 -3 -3 -4 -4 -4
8 8 7 7 6 6 6 5 5 5 4 4 4 3 2 1 1 0 -0 -1 -1 -1 -3 -3 -2 -3 -3 -3 -4 -4 -5 -5
7 7 7 6 6 6 5 5 4 4 4 4 3 2 1 1 0 -0 -1 -2 -2 -2 -3 -3 -3 -4 -3 -4 -4 -5 -6 -6
7 7 6 6 6 5 5 4 4 4 3 3 2 1 1 0 -0 -1 -2 -3 -3 -3 -3 -3 -4 -4 -4 -4 -5 -6 -6 -7
7 6 6 6 5 5 4 4 4 3 2 2 1 1 0 -0 -1 -2 -3 -3 -3 -3 -4 -4 -4 -4 -5 -5 -6 -7 -8 -9
6 6 6 5 5 4 4 3 3 2 2 1 1 -0 -0 -1 -2 -3 -3 -3 -3 -4 -4 -4 -4 -5 -5 -6 -7 -8 -9 -10
6 6 5 5 4 3 3 3 2 2 1 0 -0 -0 -1 -2 -3 -3 -3 -4 -4 -4 -4 -4 -5 -6 -6 -7 -8 -9 -9 -10

GFSFLT1_850_temp_018.txt.gz
Temp
16 16 16 16 15 14 12 13 13 11 11 10 10 11 11 11 11 11 11 10 10 11 10 10 9 8 8 8 7 7 6 6
14 13 13 14 13 13 11 12 11 10 11 10 10 10 11 11 11 11 11 11 10 10 10 9 8 8 8 7 6 5 5 5
12 11 11 11 11 11 12 11 11 11 11 11 11 11 11 11 11 11 10 10 10 9 9 8 8 7 6 5 5 4 3 3
11 12 12 12 12 12 12 11 11 11 11 11 11 11 11 10 10 10 9 9 8 8 7 6 5 5 5 4 3 3 2 2
12 13 12 12 12 11 11 11 11 11 11 11 11 10 10 10 9 8 7 7 6 5 5 5 5 4 3 3 2 2 1 0
13 13 13 13 12 12 12 11 11 11 10 10 10 9 9 8 7 6 5 5 5 4 4 4 3 3 2 2 1 1 -0 -1
12 13 12 12 11 11 11 11 10 10 9 9 8 8 7 6 6 5 5 4 4 3 3 3 2 1 1 0 0 -1 -1 -2
11 11 11 11 11 11 10 10 9 9 8 8 7 6 6 5 5 4 4 3 3 3 2 2 2 0 -1 -1 -1 -1 -2 -3
10 10 10 10 10 10 9 9 9 8 7 7 6 5 5 4 3 3 3 3 2 2 2 1 0 -1 -1 -2 -2 -2 -3 -3
10 10 10 10 9 9 9 8 7 7 6 6 5 5 4 4 3 3 3 3 2 1 -0 -0 -0 -1 -2 -2 -2 -3 -3 -3
9 9 9 9 9 9 8 8 6 6 6 5 5 5 4 3 3 3 2 1 1 1 0 -1 -1 -2 -3 -2 -3 -3 -3 -4
9 8 9 9 8 8 7 7 6 6 5 5 4 4 3 3 2 1 1 0 0 -0 -1 -1 -2 -3 -3 -3 -3 -3 -4 -4
8 9 9 9 9 9 7 6 6 5 5 4 4 3 3 1 1 0 0 -0 -0 -2 -2 -2 -3 -3 -3 -3 -4 -3 -4 -4
8 8 8 7 8 7 6 5 5 5 4 4 3 2 1 1 0 -0 -0 -1 -1 -2 -3 -3 -3 -3 -3 -4 -4 -4 -4 -5
8 7 7 7 6 6 5 5 5 4 3 3 2 2 1 0 -0 -1 -1 -2 -2 -3 -3 -3 -3 -3 -4 -4 -4 -4 -5 -6
7 7 6 6 6 5 5 5 4 3 3 2 1 1 0 -0 -1 -1 -2 -2 -3 -4 -4 -4 -4 -4 -4 -4 -5 -5 -6 -6
7 6 6 6 5 5 5 4 3 3 2 2 1 0 -0 -1 -1 -2 -3 -3 -3 -3 -4 -4 -4 -4 -5 -5 -5 -6 -7 -7
7 6 6 6 5 5 4 3 3 2 2 1 1 -0 -1 -2 -2 -3 -3 -4 -4 -4 -4 -4 -5 -5 -5 -6 -6 -7 -7 -8
6 6 6 5 4 4 3 3 2 1 1 0 -1 -1 -2 -2 -3 -3 -4 -4 -4 -4 -4 -5 -5 -6 -6 -6 -7 -7 -8 -9

GFSFLT1_850_temp_021.txt.gz
Temp
15 15 15 15 15 14 13 11 12 12 11 10 10 10 10 10 11 11 11 11 11 10 10 9 9 8 8 7 6 6 6 5
15 14 14 14 13 13 12 11 12 11 11 11 10 11 11 11 11 11 10 10 10 9 8 8 7 6 6 5 5 5 5 4
13 13 13 13 12 11 11 11 11 11 11 10 11 11 11 11 10 10 10 9 9 8 6 6 5 5 5 4 4 4 3 3
11 11 12 12 11 11 11 11 11 10 10 11 11 10 10 10 10 9 9 7 6 6 5 5 4 4 3 3 2 2 2 2
12 12 12 13 13 12 11 11 11 10 10 10 10 10 10 9 8 7 7 6 5 5 4 4 4 3 3 2 2 1 1 0
12 11 12 11 12 11 11 11 11 10 10 10 9 9 8 7 7 6 5 5 4 4 3 3 3 3 2 1 1 0 -0 -1
11 11 11 11 11 11 11 10 10 10 10 9 8 7 7 6 5 5 4 4 4 3 3 2 2 2 1 0 -0 -1 -1 -2
11 11 11 11 10 10 10 10 10 9 9 8 7 6 6 5 5 4 4 3 3 3 3 2 1 0 -1 -1 -1 -2 -2 -3
11 11 11 11 10 10 9 9 9 8 8 7 6 6 5 4 4 3 3 3 3 2 2 1 1 -0 -1 -2 -2 -2 -2 -3
10 10 10 10 9 9 9 9 8 7 6 6 5 5 4 4 3 3 3 2 1 1 1 0 -0 -1 -1 -2 -2 -2 -3 -3
10 10 9 8 8 9 8 8 8 7 6 5 5 4 4 4 3 2 1 1 1 0 -0 -1 -1 -1 -2 -3 -3 -3 -3 -3
9 9 8 8 8 8 7 7 6 6 5 5 4 4 3 3 2 1 0 -0 -0 -0 -1 -2 -2 -2 -3 -3 -3 -3 -4 -3
9 8 8 8 7 6 7 7 6 5 5 4 4 3 3 2 1 0 -0 -1 -1 -1 -2 -2 -3 -3 -3 -3 -3 -4 -4 -4
8 7 7 7 7 7 6 6 5 4 4 4 3 3 2 1 0 -0 -1 -1 -1 -2 -3 -3 -3 -3 -4 -3 -4 -4 -4 -4
7 7 7 7 7 6 5 5 4 4 4 3 3 2 1 0 -0 -1 -1 -2 -2 -3 -3 -4 -4 -4 -5 -4 -4 -4 -5 -5
7 8 7 7 6 5 5 4 4 3 3 3 2 1 1 0 -1 -1 -2 -3 -3 -3 -3 -4 -4 -4 -5 -5 -5 -5 -5 -6
8 7 7 7 6 5 4 4 3 3 3 2 1 1 0 -0 -1 -2 -3 -3 -3 -4 -4 -4 -4 -5 -5 -5 -5 -6 -6 -6
7 7 7 6 5 5 4 4 3 3 2 1 1 -0 -1 -1 -2 -2 -3 -3 -4 -4 -4 -4 -5 -5 -5 -6 -6 -6 -7 -7
7 7 6 6 5 5 4 3 3 2 1 0 -0 -1 -2 -2 -3 -3 -4 -4 -4 -4 -5 -5 -6 -6 -6 -6 -7 -7 -7 -8

GFSFLT1_850_temp_024.txt.gz
Temp
15 14 13 13 12 13 13 13 11 11 12 11 11 10 10 11 11 10 10 10 10 10 9 9 8 6 6 5 5 5 5 5
15 15 14 12 11 11 11 11 11 11 12 12 11 11 10 10 10 10 10 10 9 9 7 6 6 5 5 5 4 5 4 4
12 11 11 12 12 11 11 11 11 10 12 11 10 9 9 10 11 10 9 9 8 7 7 5 5 5 4 3 3 3 4 3
12 12 11 11 11 11 11 11 10 10 10 9 10 10 10 9 8 8 8 7 6 6 6 5 5 4 4 2 2 2 2 2
13 12 12 11 11 11 11 10 10 10 10 9 9 10 9 8 7 6 5 6 6 5 4 4 3 3 2 2 1 1 0 1
13 12 11 11 10 10 10 10 10 10 10 9 9 8 8 7 6 6 5 5 4 3 3 3 2 2 1 0 0 -0 0 -0
12 11 10 10 9 9 10 9 10 9 9 9 8 8 7 7 6 6 6 5 4 4 3 2 1 1 0 0 -0 -1 -1 -1
11 11 11 10 9 8 9 8 8 8 7 7 7 6 6 6 5 5 4 4 4 3 2 2 1 1 -0 -0 -1 -1 -1 -1
12 11 11 10 9 8 8 8 8 7 7 7 7 6 5 5 4 4 3 3 2 1 1 1 0 -0 -1 -1 -1 -1 -2 -2
12 11 10 9 9 8 8 8 8 8 7 7 6 5 4 4 3 2 2 1 1 1 0 -0 -0 -1 -1 -1 -1 -2 -2 -2
12 11 10 9 8 8 7 7 7 7 6 6 5 5 4 4 2 2 1 1 0 -0 -0 -1 -1 -1 -1 -1 -2 -2 -2 -2
11 10 9 8 8 8 7 7 6 6 5 5 4 3 3 3 2 1 1 -0 -0 -1 -1 -1 -1 -1 -1 -2 -2 -2 -2 -3
11 10 9 8 8 7 7 6 5 4 4 4 3 4 3 2 2 1 0 -1 -1 -1 -2 -2 -2 -2 -3 -3 -3 -3 -3 -3
11 9 8 8 7 7 6 5 4 4 4 4 4 3 3 2 1 0 -0 -1 -1 -2 -2 -2 -2 -3 -4 -3 -4 -4 -4 -5
10 9 9 8 7 7 6 5 5 5 4 4 4 3 2 1 1 -0 -1 -1 -2 -2 -2 -3 -3 -4 -4 -5 -5 -5 -5 -5
10 9 9 7 6 6 5 5 5 4 3 3 3 2 1 1 -0 -1 -1 -2 -2 -2 -3 -3 -4 -5 -5 -5 -5 -5 -6 -6
10 9 8 7 6 6 6 4 4 4 3 2 2 2 0 -0 -1 -1 -2 -2 -2 -3 -3 -4 -5 -6 -4 -5 -5 -6 -6 -7
9 8 8 7 6 6 5 4 4 4 3 2 1 0 -0 -1 -1 -2 -2 -2 -3 -3 -4 -4 -5 -6 -5 -6 -6 -6 -8 -8
9 8 7 6 5 6 4 4 4 3 3 2 0 -1 -1 -1 -2 -2 -2 -3 -3 -3 -4 -5 -5 -6 -6 -6 -6 -7 -8 -9

GFSFLT1_850_temp_027.txt.gz
Temp
17 17 17 17 16 13 12 11 13 12 13 12 11 10 11 10 10 10 10 9 9 8 7 8 8 7 7 6 5 6 6 6
15 16 16 16 14 12 12 12 12 11 11 10 9 10 9 9 9 9 9 8 9 8 7 7 6 6 6 5 5 5 5 5
16 15 15 15 13 12 11 11 11 11 11 10 11 10 10 10 8 9 8 8 8 7 7 6 5 5 5 5 4 4 4 4
15 15 13 12 11 11 11 11 11 11 12 11 11 10 9 9 9 9 7 7 7 6 5 5 5 4 5 4 4 3 3 3
16 15 12 11 11 11 12 11 12 12 11 12 11 12 11 10 9 8 8 6 6 6 5 5 4 4 3 3 3 2 2 2
16 16 14 12 11 11 12 12 12 11 11 11 11 10 9 9 8 7 7 6 6 6 5 4 3 3 3 2 2 1 1 1
16 15 14 13 12 12 11 11 11 10 10 9 9 8 8 8 7 7 7 6 6 5 4 3 3 3 3 2 2 1 0 -0
15 14 14 13 12 11 11 11 10 9 9 8 8 8 8 7 6 7 6 6 5 4 3 2 2 2 2 2 1 0 -0 -0
15 14 14 13 11 11 11 10 10 9 8 7 7 7 6 6 6 5 5 4 3 3 2 2 1 1 1 1 0 -0 -1 -1
15 14 14 12 11 11 11 10 10 8 7 6 7 6 6 5 5 4 4 3 3 2 1 1 1 1 1 0 -0 -1 -1 -1
15 14 13 12 11 10 10 10 9 7 6 7 6 6 4 5 4 4 3 2 2 1 1 0 0 0 0 0 -0 -1 -1 -2
15 14 13 12 11 10 9 9 8 6 5 6 5 4 5 4 4 3 3 2 1 1 0 0 -0 -0 -0 -1 -1 -2 -2 -2
16 14 13 12 11 10 9 8 7 5 6 5 4 5 5 4 4 3 2 2 1 1 -0 -0 -0 -0 -1 -2 -3 -3 -3 -3
16 14 13 12 11 10 8 7 6 6 5 4 5 5 5 4 4 3 2 1 1 0 -0 -0 -1 -1 -2 -3 -3 -4 -4 -4
16 15 13 12 11 10 8 6 5 6 4 5 6 5 4 4 3 2 2 1 0 -0 -1 -1 -1 -2 -2 -3 -4 -4 -4 -4
16 14 13 12 11 9 8 6 6 5 4 5 5 5 3 3 2 1 1 0 -0 -1 -1 -1 -2 -3 -3 -4 -4 -5 -5 -5
15 14 13 12 11 9 7 5 5 4 4 5 4 3 2 2 1 1 0 -0 -0 -1 -1 -1 -3 -3 -4 -4 -5 -5 -6 -5
15 14 13 12 11 8 7 5 5 4 5 4 3 2 2 1 1 0 0 -0 -1 -1 -1 -2 -3 -4 -4 -5 -5 -6 -6 -6
14 13 12 11 10 8 6 5 5 4 4 4 3 2 1 1 0 -0 -0 -1 -1 -1 -2 -3 -4 -4 -5 -5 -6 -6 -7 -7

GFSFLT1_850_temp_030.txt.gz
Temp
18 18 18 17 15 14 12 12 13 12 13 13 13 12 12 11 11 10 10 11 10 9 9 9 8 7 7 7 6 6 5 5
18 18 18 18 15 14 13 11 12 12 12 12 12 12 11 11 10 9 10 10 10 9 8 7 7 6 6 6 6 5 5 4
17 17 17 16 14 13 13 11 11 11 11 11 11 10 10 10 9 10 9 8 7 7 7 7 7 7 6 5 5 4 4 3
17 16 16 15 14 13 13 11 11 11 11 11 11 10 10 10 10 9 8 8 7 7 6 6 6 5 5 4 4 3 3 3
17 16 15 13 13 13 12 12 12 12 12 12 11 11 11 10 9 8 8 8 8 7 6 6 5 4 4 3 3 3 3 2
18 16 15 14 12 12 12 12 12 12 12 12 11 11 10 10 9 8 9 8 7 6 6 5 5 4 3 3 3 2 2 1
18 16 14 12 12 12 12 12 12 11 11 11 11 10 9 9 8 9 7 7 7 6 5 5 5 3 3 2 2 2 2 1
17 16 13 13 12 12 12 12 11 11 10 10 10 9 9 9 8 7 7 6 6 5 4 4 3 3 2 1 1 2 1 1
16 16 15 13 12 12 12 12 11 10 9 9 8 9 9 7 6 7 6 5 5 4 3 2 2 1 1 1 1 1 0 -0
16 15 14 13 12 11 11 11 10 9 8 8 8 8 7 7 7 6 5 4 4 3 2 2 1 1 0 0 0 0 -0 -1
16 15 14 13 12 11 11 11 10 9 8 7 7 7 7 6 6 4 4 3 3 2 1 1 1 0 0 0 -0 -0 -1 -1
16 16 15 14 12 12 11 11 10 9 7 7 7 7 6 5 4 4 4 3 2 2 1 1 0 0 0 -0 -1 -1 -2 -2
17 16 15 14 13 12 11 10 10 8 7 6 6 6 5 5 5 4 4 3 2 2 1 0 -0 -0 -0 -1 -2 -3 -2 -3
18 16 15 14 13 12 11 10 9 8 6 5 5 5 5 5 4 4 3 3 2 2 1 0 -0 -0 -1 -2 -2 -3 -3 -4
18 17 16 14 13 12 11 10 8 7 5 5 5 4 4 5 4 4 3 2 2 1 0 -0 -0 -1 -2 -2 -3 -3 -4 -4
19 18 16 14 13 12 11 10 8 6 5 5 5 4 5 3 3 3 2 2 1 0 -0 -0 -1 -1 -2 -3 -3 -4 -4 -5
19 18 17 15 13 12 11 9 7 6 5 5 5 4 4 4 2 2 1 1 0 0 -0 -1 -1 -2 -2 -3 -3 -4 -5 -5
17 17 16 15 14 12 11 9 7 6 5 4 3 4 3 2 2 1 1 1 0 -0 -1 -1 -1 -2 -3 -3 -4 -4 -5 -6
16 16 15 15 14 12 10 8 7 5 4 4 3 3 2 2 1 1 0 -0 -0 -1 -1 -1 -2 -3 -3 -4 -4 -5 -5 -6

GFSFLT1_850_temp_033.txt.gz
Temp
18 17 16 16 15 14 14 13 13 13 13 13 13 13 12 12 12 11 11 10 10 11 11 10 10 9 8 7 6 6 6 5
18 18 17 16 15 14 14 14 13 13 13 13 12 12 11 10 10 12 11 10 10 10 10 9 7 7 6 6 6 6 5 5
18 18 17 16 15 14 13 13 13 12 13 12 11 11 11 11 11 10 10 10 10 9 8 8 7 7 7 6 6 5 4 4
18 17 17 15 14 14 14 13 13 12 12 11 11 10 9 9 10 10 10 9 9 8 8 7 6 6 6 6 5 4 3 3
17 17 15 15 13 13 13 12 12 12 11 10 11 10 10 10 10 9 8 8 8 7 7 7 7 6 6 5 4 3 3 2
17 16 16 14 14 13 12 12 12 12 11 11 11 11 10 10 9 8 8 8 7 7 7 6 6 5 5 5 4 3 2 2
17 16 15 15 14 13 12 12 12 12 11 11 11 11 10 10 8 8 8 7 7 7 6 6 6 5 5 4 3 2 1 1
17 16 15 14 14 13 12 12 12 11 12 11 11 11 10 10 9 8 8 8 7 6 6 6 5 4 3 2 2 1 1 1
17 16 15 15 13 13 12 12 11 12 11 11 11 10 9 9 9 8 8 7 7 6 5 5 4 3 2 2 2 1 0 -0
16 15 15 14 13 12 12 12 12 11 11 11 10 10 9 9 9 8 7 6 7 6 4 4 3 2 1 1 0 0 -0 -0
16 14 14 13 13 12 12 12 11 11 10 10 9 9 9 8 7 7 6 6 5 4 3 3 2 1 0 -0 -0 -0 -0 -1
16 16 15 14 13 13 12 11 11 10 10 9 8 8 7 7 6 5 4 3 3 3 3 2 1 1 0 -0 -0 -1 -1 -2
16 16 15 14 13 12 12 11 11 10 10 8 8 7 7 6 5 4 3 3 3 3 2 1 1 0 -0 -0 -1 -1 -2 -2
17 16 15 14 13 13 12 11 11 10 9 8 7 7 6 4 4 3 3 3 3 2 2 1 1 0 -1 -1 -1 -2 -2 -3
17 16 16 15 14 13 12 11 11 10 9 8 7 6 5 3 2 3 3 2 3 2 2 1 1 -0 -1 -1 -1 -2 -3 -3
18 17 16 15 14 13 12 11 11 10 9 8 7 5 4 2 2 3 3 1 2 2 1 0 -0 -1 -1 -1 -1 -2 -3 -4
17 17 16 16 15 13 12 11 10 10 9 7 6 4 2 2 2 1 0 2 1 1 0 0 -0 -1 -1 -1 -2 -3 -3 -4
17 16 16 15 14 13 12 11 10 8 7 6 4 3 1 1 0 -0 1 1 1 0 -0 -0 -1 -1 -2 -2 -3 -3 -4 -4
15 15 15 15 14 13 11 11 9 7 5 4 3 2 1 0 -1 -0 1 0 0 -0 -1 -1 -1 -2 -2 -2 -3 -4 -4 -5

GFSFLT1_850_temp_036.txt.gz
Temp
15 15 15 15 14 13 13 13 13 12 12 12 12 12 12 13 12 11 11 11 11 10 11 10 10 10 9 8 8 7 6 5
15 15 15 14 13 14 14 13 13 13 13 13 13 12 13 12 11 11 10 10 11 11 10 10 9 9 8 7 7 6 6 5
15 15 14 14 14 14 15 14 13 13 13 13 13 13 13 11 11 10 10 10 11 10 10 10 9 8 8 7 6 6 5 4
16 15 15 15 14 15 15 14 14 13 12 13 13 12 11 11 11 10 10 10 10 9 9 9 9 9 8 7 5 5 4 3
17 16 16 15 15 14 14 14 13 12 12 12 12 12 12 11 10 10 10 9 8 9 9 9 8 7 6 5 5 5 4 3
17 17 17 16 16 15 14 13 12 12 12 11 12 11 11 11 10 9 9 8 9 9 9 8 7 6 6 5 5 4 4 3
17 17 15 15 14 15 13 12 12 11 11 11 11 11 11 10 9 9 8 8 8 7 6 6 6 6 5 5 5 3 3 1
16 16 15 15 14 14 12 12 12 11 11 11 11 11 11 11 10 9 8 8 7 7 7 5 5 5 5 4 3 3 2 1
16 16 16 15 15 13 12 12 12 11 11 11 10 10 10 10 9 8 8 7 7 6 5 4 5 4 3 3 2 2 1 0
17 16 16 15 13 13 12 12 11 11 11 11 11 10 9 9 8 7 7 6 6 5 4 4 3 2 2 2 1 1 0 -0
17 16 15 15 14 13 12 12 11 11 11 11 10 9 9 8 8 7 6 5 5 3 3 3 3 2 2 2 1 0 -0 -1
17 16 16 15 15 14 13 12 12 11 11 11 10 10 9 8 8 7 6 5 4 3 3 3 2 2 1 1 0 -0 -1 -1
18 18 17 16 15 14 13 13 12 12 11 11 10 10 9 8 7 6 5 4 3 3 2 2 2 2 1 1 0 -1 -1 -1
16 16 16 16 15 15 14 13 12 12 11 11 10 9 8 7 7 6 5 3 3 2 2 2 1 1 1 0 -0 -1 -1 -2
17 16 15 15 15 15 13 12 12 11 11 10 10 9 8 7 6 4 3 2 2 2 1 1 1 0 0 -0 -1 -1 -1 -2
15 15 15 15 14 14 13 12 12 11 10 9 8 7 6 5 3 1 2 1 1 -0 1 1 1 0 0 -0 -1 -1 -2 -2
16 16 16 15 14 14 13 12 11 10 9 8 6 5 4 3 2 0 -0 1 -0 -1 0 0 -0 -0 -1 -1 -1 -2 -2 -3
15 15 15 15 15 14 13 12 11 10 8 6 5 5 4 3 1 -1 -1 -2 -2 -1 -1 -1 -0 -1 -1 -1 -2 -2 -3 -3
15 14 14 14 14 13 12 11 9 7 6 5 4 3 2 -0 -2 -2 -1 -0 -1 -1 -0 -1 -2 -2 -2 -2 -2 -3 -3 -4

GFSFLT1_850_temp_039.txt.gz
Temp
15 15 15 15 14 14 13 13 13 12 12 12 12 11 11 11 11 12 12 11 11 10 10 10 10 10 10 9 9 8 7 6
15 16 15 15 14 13 13 13 12 12 12 12 12 11 11 11 12 12 11 11 10 10 10 10 10 10 9 8 8 7 7 6
15 15 15 15 15 14 13 13 13 13 12 12 12 11 11 11 11 11 10 10 10 10 10 10 10 9 8 7 7 7 7 6
16 16 15 15 15 15 15 15 13 13 13 12 12 11 11 11 11 10 10 10 10 10 9 9 8 8 7 7 7 6 5 5
16 16 15 15 15 15 15 14 14 13 12 12 12 12 12 12 12 11 10 10 9 9 8 8 8 8 7 7 6 5 5 4
16 16 17 16 15 14 15 14 13 13 12 12 12 12 12 12 11 10 9 9 8 8 8 8 7 6 5 5 5 4 4 4
16 16 15 15 15 14 14 14 13 12 12 12 11 10 11 12 11 10 9 9 8 7 7 7 6 4 4 4 4 4 3 2
15 15 15 15 15 15 14 14 13 12 12 11 11 10 10 11 11 10 9 8 8 7 7 5 4 5 3 3 3 3 2 2
16 16 16 16 15 15 15 14 12 12 11 11 11 10 10 11 11 10 9 8 7 6 6 5 4 3 2 3 3 3 2 1
17 15 15 15 15 15 14 13 12 12 11 11 11 10 10 11 9 9 8 7 6 6 4 3 3 1 2 2 2 2 1 0
16 16 16 15 15 15 13 13 12 12 11 11 11 11 11 11 9 9 7 7 5 5 4 4 3 2 1 2 2 1 0 0
17 17 16 17 16 15 14 13 13 12 12 12 12 11 11 10 9 8 8 7 7 6 4 3 3 2 2 1 1 1 0 -0
19 18 17 17 16 15 15 15 14 14 13 13 11 10 10 9 9 9 8 7 5 4 3 2 2 2 1 1 1 0 -0 -1
17 17 17 17 16 15 14 14 13 13 13 13 10 10 9 9 8 6 6 4 3 3 1 1 1 1 1 0 0 -0 -1 -1
17 16 17 17 16 15 14 14 13 14 13 11 10 9 8 8 6 6 6 3 2 2 1 1 -0 1 0 -0 -0 -0 -1 -1
16 15 15 16 15 14 14 13 14 13 11 10 10 9 8 6 6 5 3 3 0 -0 -1 -2 -1 -1 -1 -0 -1 -1 -1 -2
15 15 15 15 15 14 13 14 14 11 10 10 9 7 6 5 4 3 2 0 -0 -2 -0 -0 -1 -2 -1 -1 -1 -1 -2 -2
15 15 15 15 14 13 13 12 12 10 9 9 7 5 5 4 2 2 0 -1 -1 -0 -1 -2 -2 -1 -1 -1 -2 -2 -2 -2
14 14 14 14 14 14 13 11 10 9 7 6 5 5 4 3 1 -0 -1 0 -1 -2 -2 -1 -1 -1 -1 -2 -2 -3 -3 -3

GFSFLT1_850_temp_042.txt.gz
Temp
15 15 15 14 14 14 13 13 13 12 12 12 11 11 11 11 11 12 12 11 11 11 10 10 9 9 9 9 9 9 8 7
15 15 15 14 14 14 13 13 13 12 12 12 11 11 11 11 11 11 11 11 11 10 10 9 9 9 9 9 8 7 6 5
16 15 15 15 15 15 14 14 13 13 12 12 11 12 11 11 11 11 11 11 10 9 9 9 9 8 8 7 7 6 5 5
16 16 15 15 15 15 15 14 13 13 13 12 12 10 10 11 11 11 11 10 9 9 9 8 8 8 7 6 5 4 4 5
16 16 16 16 15 15 14 14 13 13 13 12 12 12 12 11 11 11 11 10 9 8 8 8 7 7 6 5 5 5 6 6
17 17 17 16 16 15 15 14 13 13 13 12 12 11 11 11 11 11 10 9 8 8 8 7 7 6 5 4 5 4 6 5
18 18 17 16 16 15 15 15 14 14 13 12 12 11 11 10 10 10 9 9 8 8 7 7 6 6 6 5 7 4 4 3
18 17 17 17 17 16 15 15 14 13 13 13 12 12 11 9 10 10 9 9 8 8 8 7 6 6 5 5 5 3 3 2
18 18 17 17 17 16 15 15 15 14 13 13 12 12 10 10 9 10 9 9 9 8 7 6 5 5 6 4 3 2 2 2
18 17 17 17 17 17 16 15 15 15 14 13 12 11 10 9 9 8 8 8 8 7 7 8 6 6 4 3 2 2 2 1
17 16 17 17 17 16 16 16 15 15 14 13 12 11 11 12 12 9 9 9 8 8 7 6 5 4 3 1 1 1 1 1
18 18 17 17 16 16 16 15 14 14 13 12 11 12 12 12 12 12 11 10 8 7 5 5 3 2 1 -0 0 1 1 0
17 17 17 17 17 16 16 15 15 15 14 12 12 12 12 12 12 9 8 8 7 5 4 4 2 1 0 -1 0 1 0 -0
17 16 16 17 17 16 16 16 16 15 14 13 13 13 12 10 9 9 8 7 6 5 3 2 1 1 -1 -1 -1 -0 -0 -0
17 17 16 15 15 15 16 16 15 15 14 13 13 12 10 9 8 8 6 5 5 2 1 0 -1 -1 -1 -2 -1 -1 -1 -1
16 16 16 15 15 14 16 15 14 14 13 13 11 9 8 7 7 6 5 4 2 1 0 0 -0 -1 -2 -2 -2 -1 -1 -1
14 15 15 15 14 14 13 12 12 11 11 9 8 7 7 6 5 5 4 2 2 0 0 -0 -1 -1 -1 -1 -1 -1 -1 -2
14 14 14 15 14 14 14 12 11 10 9 8 7 6 5 4 4 3 1 -0 -0 -0 -0 -0 -1 -1 -2 -1 -1 -1 -2 -2
13 13 13 13 13 13 13 12 10 8 7 6 5 4 4 3 1 -0 -0 0 -0 -0 -1 -1 -1 -1 -1 -1 -2 -2 -2 -3

GFSFLT1_850_temp_048.txt.gz
Temp
13 12 12 12 11 10 10 10 10 11 11 12 11 10 10 10 11 12 12 12 12 12 11 11 10 10 10 9 9 9 8 7
13 12 12 12 12 11 10 10 10 11 10 10 11 11 10 10 11 12 12 11 12 11 11 11 10 10 9 9 9 8 8 8
14 13 13 13 12 11 11 11 11 11 11 11 11 11 11 11 10 11 11 12 12 11 11 11 10 8 9 9 8 8 6 7
15 14 13 13 12 12 12 11 11 11 11 10 10 11 10 10 10 12 11 11 11 11 11 10 10 9 9 8 8 8 7 6
17 15 14 13 13 12 12 12 12 11 11 11 11 11 11 11 10 11 12 11 11 11 11 10 10 9 8 8 8 7 7 6
18 17 16 14 13 13 12 12 12 11 11 11 11 11 12 12 10 10 11 11 11 11 10 9 9 9 8 8 8 7 7 6
19 18 17 16 15 13 12 12 12 12 11 11 11 11 12 12 10 10 12 11 11 10 10 9 8 8 8 8 7 7 6 7
19 18 17 16 15 14 14 15 13 13 13 14 14 13 12 11 11 11 11 11 11 10 9 9 8 7 8 7 7 6 6 5
19 18 18 17 16 14 14 16 15 14 15 15 14 13 13 12 11 11 12 11 10 9 9 9 8 7 7 6 6 5 4 3
19 19 18 17 16 14 14 14 13 13 15 15 14 14 14 12 11 11 11 10 9 9 9 8 8 7 7 6 4 4 3 2
17 17 17 17 16 14 13 13 13 12 13 14 14 13 12 12 11 12 10 10 9 9 9 8 7 7 5 4 3 2 1 0
16 16 15 15 14 14 13 13 13 12 12 12 13 13 13 12 11 10 10 10 10 10 9 8 7 7 4 3 2 1 -1 0
16 15 15 14 14 13 13 13 13 13 12 11 11 11 11 11 10 10 10 9 9 9 8 8 7 5 3 2 1 -1 -0 -0
17 15 15 15 14 13 13 13 12 12 12 13 13 13 13 12 11 11 9 9 9 8 8 6 5 2 1 2 1 0 -1 -1
17 16 15 14 13 13 12 13 13 14 13 13 13 12 11 10 9 9 9 8 8 7 6 4 2 1 1 0 1 -0 -0 -1
15 15 15 14 13 12 12 11 13 13 12 11 10 9 9 8 8 8 8 7 6 6 4 2 1 1 1 1 -0 -0 -1 -1
13 13 12 12 12 11 12 12 12 11 10 10 9 8 8 8 7 7 6 5 4 3 2 1 1 1 0 -0 -0 -1 -1 -2
11 10 11 13 13 13 13 12 11 11 10 9 8 7 7 6 5 4 4 3 3 2 1 1 0 0 0 -1 -1 -2 -3 -2
9 11 12 12 12 12 12 11 10 9 8 7 7 6 5 4 3 3 2 2 1 1 0 0 -0 -1 -1 -1 -2 -2 -3 -3

GFSFLT1_850_temp_051.txt.gz
Temp
14 12 11 12 11 10 9 10 9 10 10 10 10 11 11 11 11 11 11 11 11 12 10 10 11 10 9 9 9 9 9 9
14 13 13 12 13 12 11 11 10 10 10 11 11 11 11 12 11 11 11 11 12 12 11 10 11 10 9 9 8 8 8 8
15 14 14 13 13 12 12 12 11 11 11 12 12 12 12 12 12 12 11 11 10 11 10 10 11 9 9 8 8 8 8 8
16 15 14 14 14 13 13 12 12 11 12 13 12 12 13 13 13 12 11 10 10 11 10 10 10 10 9 9 8 8 8 7
18 16 15 14 14 14 13 13 13 13 13 13 13 13 13 13 13 12 11 11 12 11 11 10 11 10 9 9 8 8 8 8
19 18 17 16 15 14 14 14 14 14 13 13 13 13 13 13 13 12 11 10 12 11 9 10 10 10 9 8 7 7 7 8
20 20 18 17 16 15 14 14 14 14 14 13 13 13 13 14 13 12 11 10 10 11 10 10 10 9 9 8 7 7 7 6
21 21 20 18 17 16 15 14 15 14 14 13 13 13 13 13 13 12 11 11 9 11 12 11 10 10 9 7 7 6 6 7
22 21 21 20 18 17 15 15 15 15 13 13 12 12 12 12 12 12 11 11 10 10 11 10 10 9 9 7 6 6 5 5
22 22 21 20 19 17 16 15 15 14 13 13 13 12 12 12 12 11 11 11 12 11 11 10 9 8 7 7 6 5 5 4
22 22 22 20 20 18 16 15 15 14 14 12 12 12 12 13 12 11 11 13 11 10 10 10 9 8 7 6 6 4 4 3
20 20 20 21 20 19 17 16 15 16 15 13 12 11 12 13 11 11 10 10 10 10 9 9 8 7 5 5 3 3 2 2
19 19 18 18 18 18 17 15 15 15 15 14 12 12 12 11 11 11 10 10 9 9 9 8 7 5 4 3 2 1 2 1
20 18 18 17 16 16 16 15 15 15 15 14 12 11 11 11 11 10 9 9 8 8 8 7 6 4 3 2 1 1 1 1
20 19 18 17 16 16 15 14 14 14 13 12 11 11 10 9 10 9 9 8 8 8 7 7 5 3 2 1 1 1 1 1
20 19 18 17 15 15 14 12 11 11 11 10 10 10 9 8 8 8 7 7 7 6 6 5 4 2 2 1 1 1 0 -0
20 19 18 16 15 14 11 10 10 9 8 8 9 8 6 7 7 7 5 6 5 5 4 3 2 1 1 1 0 0 -0 -1
17 16 15 14 13 11 10 9 9 8 8 7 8 8 8 7 6 5 3 3 2 2 2 1 1 1 1 0 0 -0 -2 -2
14 13 12 11 11 10 9 9 8 7 6 7 7 7 6 4 3 3 3 2 1 1 1 1 0 -0 0 -0 -1 -1 -1 -2

GFSFLT1_850_temp_054.txt.gz
Temp
12 11 9 9 9 10 9 8 8 9 9 8 9 10 11 11 11 11 11 11 11 11 11 11 11 10 10 9 9 9 10 9
13 12 11 10 9 9 10 9 9 9 9 10 10 10 10 11 11 11 11 11 11 11 11 10 11 10 10 10 9 9 9 9
13 12 11 11 11 11 10 10 10 10 10 10 10 10 11 11 11 11 12 11 11 12 11 11 11 11 10 9 10 10 9 9
14 13 12 12 11 11 11 11 11 11 11 11 11 11 12 12 12 12 12 11 11 11 12 11 11 11 10 10 10 10 9 8
16 14 13 13 13 13 12 12 12 11 11 12 12 12 12 12 12 13 12 12 12 11 10 10 10 10 10 10 11 10 8 8
17 15 14 14 14 13 13 13 12 12 12 13 12 13 13 13 13 13 13 12 12 12 11 11 10 10 10 10 10 10 9 8
19 17 15 15 14 14 14 13 13 13 13 13 13 13 13 13 13 13 13 12 12 12 11 11 10 11 10 9 9 8 8 7
21 19 17 16 15 15 14 14 13 13 14 14 13 13 12 13 13 13 13 13 12 12 11 11 11 11 10 10 9 7 7 7
22 21 19 18 17 16 15 14 14 14 14 14 14 14 13 13 13 13 13 12 12 12 11 11 11 11 9 8 7 7 6 6
22 22 21 19 18 17 16 15 14 14 15 15 15 15 13 13 12 12 12 12 11 11 10 10 10 9 9 8 7 7 6 5
23 23 22 21 19 18 17 16 15 15 15 15 14 15 13 13 12 11 12 11 12 12 11 10 9 9 8 8 6 6 5 5
21 22 22 22 21 19 18 17 16 16 15 16 14 13 13 13 11 12 11 11 11 10 10 9 9 9 8 7 7 6 5 4
20 20 20 21 21 20 18 17 17 16 15 15 14 13 12 11 12 11 10 11 10 9 9 9 8 8 7 6 5 4 4 2
20 19 19 19 20 20 18 17 16 16 15 15 13 13 13 11 11 10 10 9 9 9 8 8 8 7 6 5 4 4 3 2
21 19 19 18 18 18 17 16 16 16 15 14 13 13 12 10 10 10 9 9 9 8 8 7 7 6 4 4 3 3 2 1
21 20 19 18 17 16 16 15 15 15 14 14 12 11 10 9 9 9 8 8 8 7 7 6 5 4 3 2 1 1 1 0
22 21 19 17 16 15 14 14 14 13 12 10 10 9 9 8 7 7 6 6 6 5 5 4 3 2 1 0 0 0 0 -0
21 20 19 17 15 14 12 11 11 10 11 10 7 7 7 7 6 5 5 5 4 4 3 2 0 0 0 0 0 -0 -0 -1
18 18 17 16 14 12 11 10 9 8 7 7 7 7 6 5 3 3 4 3 2 1 1 1 0 -0 -0 -1 -0 -0 -1 -2

GFSFLT1_850_temp_057.txt.gz
Temp
11 10 9 9 8 8 8 8 8 8 8 8 8 8 10 11 12 11 12 12 11 11 11 11 11 11 11 11 11 10 10 9
12 11 10 9 9 9 8 8 8 9 8 8 9 9 10 10 11 11 11 12 12 11 12 11 10 11 11 11 11 10 10 9
12 12 11 10 10 10 9 9 9 8 9 9 9 10 10 10 11 11 11 11 11 11 12 11 11 11 11 11 11 10 10 9
12 12 12 11 11 11 11 11 10 10 10 10 10 10 10 11 11 11 11 11 11 11 11 11 11 11 11 11 11 11 11 10
14 13 12 11 12 12 12 11 10 11 10 10 11 11 10 11 11 12 11 11 11 12 12 11 11 11 11 10 10 10 10 9
14 14 14 13 12 12 12 12 11 11 11 11 11 11 11 12 12 12 12 12 12 12 12 12 11 11 11 10 10 10 9 8
16 16 15 14 12 12 12 12 12 12 12 12 11 11 11 12 12 12 12 12 12 12 12 11 12 11 10 10 10 9 9 8
16 15 14 14 13 12 12 12 12 12 12 12 12 12 12 12 13 13 13 13 12 12 12 12 12 11 11 10 9 9 8 7
17 17 16 16 15 14 13 13 13 12 12 13 13 13 13 13 13 13 13 13 13 13 12 12 12 12 11 9 9 8 8 7
18 18 18 17 16 16 15 14 13 13 13 13 13 13 14 13 13 14 13 12 12 11 12 12 13 12 10 9 9 8 8 7
20 18 18 19 18 18 17 16 15 15 14 13 13 13 13 14 13 13 13 13 12 11 13 13 12 10 10 9 8 8 7 6
22 20 18 19 19 19 18 16 15 14 14 14 14 14 14 13 13 13 12 12 12 13 13 10 9 10 9 9 8 8 7 6
22 21 20 20 19 19 18 17 15 15 15 14 14 14 13 11 11 12 12 11 11 10 10 9 9 8 9 8 8 7 6 5
21 21 20 20 19 17 17 17 14 16 14 15 14 14 13 10 11 12 11 11 10 9 9 9 9 9 8 7 6 5 4 3
21 21 20 19 19 18 17 16 16 16 14 15 15 14 12 12 13 13 10 9 9 9 9 9 8 7 6 5 4 4 3 2
20 20 20 19 18 17 17 17 17 16 16 16 14 13 13 12 11 11 9 9 9 8 8 8 7 6 5 4 3 3 2 1
20 20 19 18 17 17 16 16 16 16 16 15 14 12 11 11 10 9 8 8 7 7 7 6 6 5 4 3 2 1 0 0
21 20 18 17 17 18 16 15 15 14 13 12 11 10 10 9 9 8 7 6 6 5 5 5 4 2 1 0 0 -0 -0 -1
21 20 18 17 16 16 15 15 14 12 11 10 9 9 9 8 7 7 6 5 5 5 3 1 1 0 -0 0 -0 -0 -0 -1

GFSFLT1_850_temp_063.txt.gz
Temp
12 11 8 8 9 9 9 9 9 9 8 8 8 9 10 10 11 12 11 12 12 12 13 12 11 11 11 11 11 11 10 10
12 12 10 8 8 8 8 9 9 8 8 7 8 9 9 10 10 11 11 12 12 12 12 11 11 11 11 11 11 10 10 10
12 13 12 8 8 8 8 8 8 8 8 8 9 8 9 10 11 11 11 12 11 11 11 12 11 11 11 10 11 10 10 10
13 14 13 10 9 8 8 8 8 8 8 8 8 9 9 10 11 11 11 11 11 11 11 11 11 11 11 11 11 10 10 10
13 14 13 13 13 10 9 8 8 9 8 8 9 9 9 10 10 11 11 11 11 11 11 11 11 11 11 11 11 11 11 10
15 15 15 15 14 13 10 9 9 9 9 9 10 9 9 10 10 10 10 10 11 10 11 12 11 12 11 11 11 11 11 11
16 15 14 14 14 14 12 11 10 10 10 10 10 9 9 10 10 11 11 11 11 11 12 12 12 12 11 11 11 11 11 11
16 15 14 14 14 14 13 12 12 11 11 10 10 10 10 10 10 10 11 11 11 12 12 12 12 12 12 11 11 11 10 10
15 16 16 15 15 15 14 14 13 12 12 12 11 11 11 10 11 11 12 12 12 12 12 12 12 12 12 11 11 9 9 10
16 16 16 16 15 15 15 14 14 14 13 13 13 12 12 12 11 11 11 12 12 11 12 12 12 12 12 11 10 10 10 10
17 15 15 16 17 16 14 14 14 14 13 12 12 12 11 11 11 11 11 11 11 11 11 11 12 12 12 11 10 11 10 9
18 18 17 16 16 15 15 14 13 13 13 12 11 11 10 10 10 11 11 11 11 11 11 10 11 11 10 11 11 10 10 9
19 18 17 15 16 15 14 15 14 14 12 11 10 10 10 11 12 12 12 11 11 10 11 10 9 10 10 10 9 9 9 9
18 17 17 17 17 16 15 14 14 13 10 10 10 10 11 10 10 11 12 11 11 11 10 10 10 11 10 10 9 9 9 8
20 19 19 19 19 18 17 16 15 13 12 11 11 13 14 14 12 12 11 12 12 11 11 10 10 9 9 9 9 9 8 7
21 20 21 20 19 19 18 18 16 14 12 11 12 13 13 12 11 12 12 12 12 12 11 10 9 9 9 9 9 8 7 6
21 20 20 20 20 20 20 19 18 16 14 13 13 12 12 13 12 11 11 11 10 10 10 11 9 9 9 8 8 7 6 5
22 21 20 19 20 20 21 21 19 18 16 14 13 12 12 12 12 10 10 10 10 9 10 9 9 8 8 7 6 5 4 3
21 22 22 20 20 20 20 20 19 17 16 15 14 13 12 11 10 10 10 9 9 9 9 8 8 7 6 5 4 3 2 1

GFSFLT1_850_temp_066.txt.gz
Temp
11 10 9 10 10 9 9 9 10 9 10 10 8 9 10 10 11 11 12 12 12 11 11 12 13 12 12 11 11 11 11 10
11 11 8 8 9 10 8 9 9 9 10 9 9 9 9 9 10 11 11 12 11 11 11 12 12 13 12 11 11 11 10 10
11 10 9 8 9 9 9 9 9 9 9 9 9 8 9 10 10 10 10 10 11 11 11 12 12 12 11 11 11 11 10 10
13 11 12 9 9 8 8 8 9 9 9 8 8 8 9 9 10 9 10 11 11 11 11 12 12 11 11 11 11 11 11 10
13 13 13 13 12 10 9 8 8 8 8 8 8 8 9 10 10 9 10 11 11 11 11 10 11 11 11 11 11 11 10 10
16 15 14 14 14 12 11 10 8 8 8 8 8 9 9 10 9 10 10 10 10 10 11 11 11 11 11 12 11 11 11 10
17 16 14 14 14 13 12 11 10 9 8 8 8 8 9 10 10 10 10 11 11 11 11 11 11 11 11 11 11 11 11 11
17 17 16 15 15 14 13 13 12 11 10 9 9 9 9 9 10 11 11 11 11 11 11 11 11 11 11 11 11 11 11 11
18 19 17 16 16 15 15 14 14 13 12 11 10 9 9 9 9 10 10 10 10 10 11 11 11 11 11 11 11 11 11 9
18 19 19 17 17 17 16 15 14 14 13 12 11 10 10 9 9 10 10 10 10 11 11 11 11 11 11 11 11 11 10 9
17 18 19 19 18 17 16 15 15 15 14 13 12 11 10 10 10 10 10 10 10 10 11 11 11 11 11 10 11 11 10 10
19 20 20 20 17 17 17 16 15 15 14 14 13 12 12 11 11 11 11 11 11 11 11 11 11 11 10 11 11 11 10 10
20 20 19 18 18 17 17 16 16 15 14 14 13 13 13 13 13 13 13 12 12 12 11 10 9 10 10 9 9 10 10 9
18 18 19 20 19 18 17 16 15 14 14 13 13 13 12 12 13 14 12 13 12 12 11 10 10 9 9 10 10 9 9 9
19 19 20 20 20 20 19 18 15 14 13 13 13 13 13 13 13 13 12 11 11 11 10 10 11 11 10 11 10 9 9 9
21 21 21 21 20 20 20 19 17 16 13 13 13 13 12 13 13 12 12 11 11 10 10 11 10 10 10 11 10 9 8 8
21 21 21 22 22 22 20 20 19 18 16 17 14 12 12 12 11 12 12 11 11 11 11 9 9 11 9 10 10 8 8 7
21 21 22 21 21 21 21 20 19 18 18 16 14 13 12 11 11 11 11 10 10 10 9 10 10 9 9 9 9 7 7 6
21 21 22 22 22 21 20 20 19 18 16 15 14 13 12 12 11 10 10 10 9 9 9 9 9 9 8 8 8 6 5 5

GFSFLT1_850_temp_069.txt.gz
Temp
12 11 10 10 9 10 10 10 10 10 10 10 10 9 9 9 9 10 11 11 11 11 11 11 11 12 11 11 12 11 10 10
12 12 11 9 9 9 9 10 10 10 10 10 10 9 9 9 10 10 11 11 11 11 11 11 11 11 11 11 12 11 11 10
12 13 13 10 9 8 9 10 9 9 9 10 9 10 9 9 9 9 9 11 11 11 11 11 11 11 12 12 12 11 11 10
12 13 13 11 10 9 9 9 9 9 9 9 8 8 8 9 9 9 9 10 10 11 11 11 11 11 11 12 12 12 11 11
13 14 14 14 13 10 9 9 9 9 9 9 8 9 8 9 9 9 9 9 10 10 10 10 11 11 12 11 11 11 11 11
14 14 15 15 14 12 10 9 9 9 9 9 9 8 9 8 8 9 9 9 9 9 10 10 9 11 10 10 11 11 11 10
16 15 14 15 14 13 12 11 11 10 9 9 9 9 9 9 9 9 9 9 9 8 10 9 10 11 10 11 11 10 11 11
15 15 14 14 15 15 14 13 12 12 10 10 9 9 8 9 9 10 9 10 10 10 10 10 11 11 11 11 11 11 11 11
16 17 16 16 16 15 15 14 13 12 11 11 10 9 9 9 9 9 10 10 10 10 10 10 10 10 11 11 11 11 11 11
18 16 16 17 17 17 16 15 14 13 12 11 11 10 10 9 9 9 10 10 10 10 10 10 10 11 11 11 11 10 11 11
18 17 17 17 17 18 17 16 15 15 13 12 12 12 11 10 10 10 10 10 10 10 11 11 11 11 10 10 10 11 10 11
19 18 16 16 16 17 17 16 16 15 14 13 13 13 13 12 11 11 10 10 10 10 10 10 10 10 11 11 11 10 10 10
19 18 18 16 17 17 18 17 16 16 15 15 14 13 14 13 13 14 14 14 13 13 12 11 11 11 11 11 11 10 9 10
20 19 19 18 18 18 17 17 17 15 14 14 14 14 13 13 13 13 12 11 11 12 12 13 12 12 11 10 10 9 8 9
20 20 21 20 19 19 18 18 17 15 15 14 14 14 14 14 13 13 13 13 12 12 11 11 12 11 10 10 10 9 9 8
21 21 21 21 21 21 20 20 19 18 16 15 15 15 14 13 13 13 13 13 13 12 11 11 11 11 11 10 9 9 8 8
20 20 20 21 22 22 22 21 21 20 19 19 16 15 14 14 13 13 12 12 12 12 12 11 11 11 9 9 9 9 9 9
20 20 20 21 21 21 22 22 21 20 19 18 17 16 15 14 13 12 12 11 11 11 11 12 11 11 10 9 9 9 8 8
21 21 21 21 21 21 21 20 21 20 20 19 18 17 15 14 13 12 11 10 10 10 10 10 10 10 10 9 9 8 8 8

GFSFLT1_850_temp_072.txt.gz
Temp
13 11 11 10 9 9 10 10 10 10 10 10 10 9 9 9 9 10 11 12 12 12 10 11 12 10 10 11 11 10 11 11
13 11 11 12 9 9 10 10 10 10 10 9 10 9 9 9 9 10 11 11 11 12 10 12 11 11 10 11 11 10 11 10
13 11 10 10 11 9 9 10 10 10 10 10 10 9 9 9 9 9 11 10 11 11 11 12 11 11 10 11 11 11 11 11
14 12 11 10 12 9 9 10 9 10 10 10 9 9 9 9 9 8 10 9 10 11 11 11 11 11 12 11 10 11 11 11
15 13 12 11 11 12 9 9 9 10 10 10 10 10 9 9 9 9 9 9 9 11 10 9 10 11 11 11 11 11 11 10
16 14 13 12 11 13 11 10 9 9 9 10 10 8 9 9 9 9 9 9 9 10 9 9 9 10 10 9 10 11 11 10
17 15 13 12 11 11 12 10 9 10 9 9 9 9 9 8 9 9 9 8 9 9 8 9 9 10 10 9 10 10 11 10
17 16 14 13 11 11 10 9 9 9 8 8 9 9 9 9 10 9 9 9 9 9 9 8 9 11 10 11 9 10 10 10
18 16 15 13 12 12 14 10 10 9 9 9 8 8 9 9 9 9 10 10 10 9 9 10 10 9 10 9 8 11 10 10
18 17 15 14 12 11 15 11 11 10 9 9 9 8 9 9 9 8 9 9 9 10 10 9 10 9 10 9 10 11 10 10
19 17 15 14 13 12 12 11 11 10 11 11 10 9 10 9 9 9 9 9 9 9 9 9 9 9 9 9 9 9 9 9
19 17 16 14 13 12 11 11 11 14 14 11 12 12 11 12 12 10 9 9 9 9 9 9 9 9 9 9 9 9 9 9
19 17 16 15 14 13 12 12 11 13 15 15 14 13 12 12 12 12 12 10 9 9 8 9 9 9 9 9 9 9 9 9
20 17 17 15 15 14 13 13 12 11 11 13 13 13 14 14 14 13 11 10 9 9 8 9 9 9 10 10 10 10 8 9
20 19 17 16 16 15 14 13 13 12 12 11 13 15 15 14 14 13 12 11 10 10 11 10 10 10 10 8 10 11 10 10
20 20 20 18 16 15 14 13 13 14 13 13 15 14 13 13 12 12 11 10 11 10 10 10 11 12 11 11 11 11 11 10
20 20 19 19 18 17 15 14 14 14 15 17 15 13 12 12 11 11 9 9 8 8 8 8 8 11 11 11 11 10 10 10
18 19 19 18 19 20 18 18 14 15 17 16 16 14 13 12 10 9 9 9 8 8 8 8 8 8 10 10 9 9 9 9
16 17 18 18 17 18 20 16 15 17 16 15 16 17 15 12 10 10 9 9 8 8 8 8 8 9 10 9 9 9 9 9

GFSFLT1_850_temp_075.txt.gz
Temp
18 16 15 14 13 11 11 10 10 10 10 10 10 10 9 9 9 9 9 10 11 12 12 11 10 10 10 11 11 11 11 11
18 16 15 13 12 10 10 10 10 10 10 10 10 9 9 9 10 10 10 9 11 11 11 11 12 11 11 10 10 10 10 10
19 16 14 13 12 10 10 10 10 10 10 10 10 10 9 9 10 10 10 12 11 10 10 9 10 10 10 10 10 10 10 9
19 17 15 13 12 10 10 10 10 10 10 10 10 9 9 9 9 10 11 11 11 10 9 11 11 10 11 11 11 11 10 10
20 17 16 14 13 11 9 9 10 10 10 10 10 10 9 9 9 9 10 10 11 10 11 11 12 12 11 11 10 11 11 10
21 18 17 15 13 12 11 10 9 10 10 10 10 10 10 9 9 9 9 10 10 10 9 10 11 11 11 11 10 11 11 10
21 19 17 16 14 12 11 10 9 9 10 9 10 10 9 9 9 9 9 9 9 9 10 10 10 11 10 10 10 10 10 10
21 20 18 17 15 13 11 11 11 10 9 9 10 10 10 9 9 9 9 9 9 9 9 10 10 10 10 10 10 10 10 10
22 21 19 17 15 14 12 12 12 11 9 9 9 9 9 9 9 9 9 10 10 9 10 10 9 10 9 9 9 9 10 10
22 21 19 18 16 14 13 13 13 12 10 10 9 9 10 9 9 9 9 9 10 10 10 10 10 10 10 9 9 10 10 9
23 21 20 18 17 15 13 13 14 13 12 11 10 10 10 10 9 9 9 9 10 10 10 10 10 10 9 9 9 10 11 10
22 21 21 19 17 16 14 13 14 13 13 12 11 11 10 10 10 10 10 9 9 9 10 10 9 10 9 9 9 9 10 10
22 21 21 19 17 16 15 13 13 14 13 12 11 11 11 10 10 10 10 10 10 9 9 10 9 9 9 9 10 9 10 9
23 22 20 19 18 17 16 14 14 14 13 12 11 11 11 11 11 10 10 10 10 9 9 9 9 9 9 9 9 9 9 10
22 22 22 20 18 17 16 15 14 14 13 12 11 11 12 12 11 10 10 10 10 10 10 9 9 9 9 9 9 9 9 9
21 21 22 22 20 18 17 16 15 14 13 12 12 11 11 11 11 10 10 10 10 10 10 10 10 9 9 9 9 9 9 9
19 20 20 21 21 20 18 17 16 15 13 13 13 12 11 11 11 10 10 10 10 10 10 10 10 9 9 9 9 9 9 9
16 16 17 18 20 20 19 18 17 15 14 13 13 12 12 11 11 11 10 10 10 10 9 9 9 9 9 10 10 9 9 9
15 15 15 16 17 17 18 18 18 16 15 14 14 13 12 12 11 11 10 10 10 10 9 9 9 9 9 9 9 9 9 8

GFSFLT1_850_temp_078.txt.gz
Temp
20 18 17 16 14 13 11 12 11 11 10 10 10 10 10 9 10 10 10 10 9 10 10 10 11 11 11 11 11 11 11 11
20 18 17 16 14 12 11 11 11 10 10 10 10 10 10 9 9 10 10 9 10 10 10 11 12 11 11 11 11 11 11 11
21 18 17 15 14 12 11 10 10 10 10 10 10 10 10 9 9 9 9 9 10 10 10 11 12 11 11 11 10 10 11 11
21 18 16 14 14 12 11 10 10 10 10 10 10 10 9 9 9 8 9 10 10 10 10 11 11 11 11 11 11 10 10 10
21 19 17 15 13 13 11 11 10 10 10 10 10 10 9 9 9 9 9 9 10 10 10 10 11 10 11 13 11 10 10 11
22 20 18 16 14 13 12 11 11 10 10 10 10 10 9 10 9 10 10 10 9 10 10 10 11 11 12 11 10 10 11 11
23 21 19 17 15 13 12 12 10 10 10 10 10 9 9 9 9 10 10 10 10 9 9 10 11 11 11 11 11 11 11 10
23 21 19 17 16 14 12 12 10 11 11 10 10 10 9 10 10 10 10 10 10 10 10 11 11 11 11 11 11 11 10 10
23 22 20 18 16 15 13 12 12 10 10 10 10 11 10 10 10 10 10 10 11 11 10 10 11 11 11 11 10 11 11 10
23 23 21 19 17 15 14 12 12 11 11 10 10 10 10 10 10 9 9 9 10 11 11 11 11 11 11 11 10 11 11 11
23 23 21 19 18 16 14 14 12 12 12 12 10 10 10 10 10 10 9 9 10 10 10 10 11 11 11 11 10 10 10 10
23 23 22 20 19 17 15 14 13 13 13 12 12 10 10 10 9 9 9 9 9 10 10 10 10 11 11 10 10 10 10 10
23 22 22 21 19 17 16 14 14 14 14 13 12 11 11 10 10 10 10 10 9 10 9 9 10 10 10 10 10 10 10 10
21 21 21 21 20 18 17 15 14 14 14 13 12 12 11 11 11 10 10 10 10 10 10 9 9 10 10 10 11 10 9 9
20 21 21 21 20 19 18 17 15 14 14 14 13 13 12 12 11 11 10 11 10 10 10 10 10 10 10 10 10 9 9 9
17 17 17 18 19 19 18 17 16 15 15 14 13 13 12 12 11 11 11 10 10 10 10 10 10 10 10 10 10 10 9 9
16 16 15 16 16 17 18 18 17 16 15 15 14 13 12 12 11 11 11 11 11 10 10 10 10 10 10 10 10 10 9 9
15 15 14 14 15 15 16 17 17 17 16 15 14 13 13 12 12 11 11 11 10 10 10 10 10 10 10 10 10 9 9 9
15 14 13 12 13 14 15 16 16 17 17 17 15 14 13 12 12 11 11 11 10 10 10 10 10 10 10 10 9 9 9 9

GFSFLT1_850_temp_081.txt.gz
Temp
20 19 18 17 16 15 14 12 11 10 10 10 10 11 10 10 10 10 11 10 10 10 11 11 12 12 11 11 11 11 11 11
21 19 18 17 16 15 14 13 11 11 11 10 10 11 11 10 10 10 9 9 10 10 11 11 11 11 11 11 11 11 11 11
20 19 18 17 16 15 14 13 12 10 10 10 10 10 10 10 10 10 10 10 10 10 11 11 11 10 11 11 11 11 11 11
20 19 18 17 16 15 14 13 12 11 10 10 10 10 9 9 9 10 10 10 10 10 11 11 10 10 11 11 11 11 11 11
20 19 18 17 16 15 14 13 11 10 10 10 10 10 9 9 10 10 10 10 10 10 10 10 10 10 12 11 11 11 12 11
20 20 20 17 16 16 14 13 10 9 9 10 10 10 10 9 9 10 10 10 10 10 10 10 10 11 11 11 11 11 12 11
21 21 20 17 16 15 14 13 10 10 10 10 10 10 10 10 9 9 9 9 10 9 10 10 11 11 11 11 11 11 11 13
20 19 18 17 16 15 14 13 12 10 9 10 10 10 10 10 10 10 9 9 10 10 9 10 10 10 10 10 11 11 12 12
21 20 19 18 18 16 15 14 13 12 10 10 10 9 9 10 10 10 10 10 10 10 10 10 10 10 10 11 11 11 11 11
21 21 20 19 19 18 17 15 14 13 12 10 10 10 9 9 10 10 10 10 10 10 10 10 9 10 10 10 11 11 10 11
22 21 21 20 20 19 17 17 16 14 12 11 10 11 10 10 10 10 10 10 10 11 10 10 10 9 9 10 11 11 10 10
23 22 21 21 19 19 17 16 16 14 13 12 11 10 10 10 10 10 10 10 9 10 10 10 10 10 10 10 10 10 11 11
20 19 21 20 19 18 18 17 16 15 14 12 12 12 11 10 10 9 9 10 9 9 9 9 10 11 11 11 11 10 10 11
17 18 18 17 17 19 18 17 17 16 15 14 13 12 12 12 11 10 9 9 9 9 9 9 10 10 10 10 11 11 11 10
15 15 16 16 16 15 16 18 17 16 15 14 13 13 13 12 12 12 11 10 9 9 9 9 10 10 10 10 10 10 10 11
15 14 13 14 14 15 15 15 15 16 15 15 15 14 13 13 12 12 11 11 11 10 10 10 10 10 10 10 10 10 10 11
14 13 14 14 13 14 14 14 13 13 15 16 15 15 14 13 13 12 11 11 10 10 10 10 10 10 11 10 10 10 10 10
12 13 13 13 12 12 13 14 14 14 13 13 15 15 15 14 14 13 12 12 11 10 10 10 10 10 10 10 10 9 9 9
12 12 12 12 12 13 13 12 13 13 14 14 13 12 13 14 14 13 13 12 11 11 11 10 10 10 10 10 9 9 9 9

GFSFLT1_850_temp_084.txt.gz
Temp
21 20 19 19 17 16 15 13 11 11 11 11 12 11 10 10 11 11 11 11 11 11 11 12 12 12 12 11 12 11 12 12
21 20 19 18 17 16 15 15 11 10 11 10 10 11 10 10 11 11 11 11 10 11 11 12 12 11 11 12 11 11 11 11
20 20 19 18 18 16 15 14 12 10 10 10 10 11 10 10 10 10 10 10 10 10 10 11 11 11 11 12 11 11 11 10
18 19 20 19 18 17 16 15 14 10 10 10 9 10 10 10 9 10 10 10 10 9 10 10 11 11 11 11 11 11 11 10
19 19 19 19 18 17 15 15 14 10 10 10 10 10 10 9 10 9 10 9 9 9 9 10 10 11 11 11 11 11 11 11
18 20 20 19 18 17 15 14 14 12 11 9 10 10 11 11 10 10 10 10 9 9 9 9 10 11 11 10 10 11 11 11
20 20 19 19 17 16 15 14 14 12 9 9 9 10 11 11 11 10 10 10 9 9 9 9 10 10 10 10 10 11 11 11
17 17 18 18 17 16 15 14 14 13 9 9 9 9 10 10 10 10 10 10 10 10 10 10 10 11 10 10 10 11 11 11
18 19 19 19 18 17 16 15 14 14 12 9 9 9 9 10 11 10 10 10 10 10 10 10 10 10 10 10 10 10 11 11
18 18 19 19 18 18 17 16 15 15 14 10 9 9 9 9 10 10 11 10 10 10 10 10 10 10 10 10 10 10 11 11
18 18 20 20 20 19 16 16 16 16 15 13 10 9 10 9 9 9 10 10 10 10 10 10 10 10 10 10 10 10 10 10
16 18 21 20 19 18 17 16 16 15 15 15 13 10 10 10 9 9 9 9 10 10 10 10 10 10 10 10 10 10 10 10
19 17 16 15 15 17 18 17 16 16 16 15 14 14 11 10 10 9 9 9 9 9 10 10 10 11 10 10 10 10 10 10
14 15 14 14 14 14 13 12 13 13 15 15 14 13 13 12 10 9 9 9 9 9 9 9 9 10 10 10 10 9 10 10
13 13 13 13 12 12 12 12 12 13 13 13 14 14 14 13 12 11 10 9 9 9 9 9 9 9 9 9 9 10 10 10
12 12 12 13 13 13 13 12 13 12 12 12 13 14 14 13 13 13 12 12 11 10 9 9 9 9 9 9 9 9 9 9
9 10 11 12 12 13 12 12 12 12 11 11 11 11 11 12 13 13 13 13 12 11 11 11 10 10 10 10 9 9 9 9
11 11 10 10 10 12 13 12 11 11 11 11 11 10 10 10 11 11 12 12 12 12 12 12 11 11 11 11 10 9 9 9
8 9 10 10 10 10 10 11 11 11 10 10 10 10 10 10 10 10 10 11 11 12 11 11 11 11 11 11 10 9 9 10

GFSFLT1_850_temp_087.txt.gz
Temp
22 20 20 19 18 17 16 15 14 13 12 11 12 11 10 10 11 11 10 11 11 11 12 12 12 12 12 11 11 11 11 11
21 20 20 19 18 17 16 15 14 14 12 11 12 10 10 10 11 11 11 11 11 11 10 11 12 11 12 12 11 11 11 11
20 19 19 19 18 17 16 15 15 14 13 11 11 11 10 10 10 10 11 11 11 10 10 10 11 11 12 12 11 11 11 11
19 19 19 18 18 18 17 15 15 13 12 11 10 10 10 10 10 10 10 11 10 10 10 9 10 11 11 11 11 11 11 11
20 20 19 19 18 17 17 16 15 13 11 11 10 10 9 9 10 10 10 10 11 10 10 10 9 10 11 11 12 11 11 11
19 20 21 19 18 17 16 15 14 14 11 11 10 10 10 10 9 10 9 10 10 10 10 10 8 10 10 11 11 11 11 11
19 21 18 18 17 16 16 15 14 14 12 10 10 10 10 10 10 9 9 10 10 10 10 9 9 10 9 10 10 11 11 11
19 16 16 17 18 16 16 15 14 15 13 10 9 10 10 10 10 10 9 9 10 9 9 9 9 9 9 10 10 10 10 10
19 19 18 18 18 17 17 16 14 15 14 11 10 10 10 11 11 11 11 10 10 10 9 9 9 9 10 10 10 10 10 10
19 18 17 17 18 19 18 17 15 15 14 12 10 9 10 10 10 11 10 10 10 10 10 9 10 9 10 10 10 10 10 9
16 16 17 17 19 19 17 17 16 15 14 12 11 10 9 9 10 10 11 11 10 10 10 10 10 10 10 10 10 10 9 9
14 13 13 14 16 17 17 16 15 15 14 13 11 10 9 9 9 9 10 10 11 10 10 10 10 10 10 10 9 10 10 10
14 13 13 13 13 13 13 14 13 13 12 11 11 11 9 9 9 9 9 9 10 10 10 10 10 9 10 10 10 10 10 10
10 12 11 12 13 13 13 13 13 12 13 12 12 11 10 9 9 9 9 9 9 9 9 10 10 10 10 9 9 10 10 10
7 8 9 10 10 10 10 10 11 11 12 12 12 11 11 10 11 10 9 9 9 9 9 9 9 9 9 10 10 10 10 10
7 8 8 9 9 9 9 10 11 11 10 10 11 11 11 11 11 11 11 10 10 9 9 9 9 9 8 8 8 9 9 9
5 6 10 9 10 10 10 10 10 10 10 9 9 9 9 10 10 10 10 11 11 10 10 10 9 9 10 9 8 8 8 9
5 4 6 7 9 10 9 9 9 9 9 9 9 9 9 10 10 10 10 10 10 10 10 10 10 11 11 11 10 9 9 9
6 6 6 6 8 8 8 9 9 9 9 9 9 9 9 9 9 9 9 9 9 10 10 10 10 10 11 11 10 9 9 10

GFSFLT1_850_temp_090.txt.gz
Temp
20 20 20 19 19 18 17 16 15 14 12 12 12 11 11 11 11 11 10 10 11 11 12 12 11 11 11 10 10 10 11 11
20 21 20 19 18 18 17 16 15 14 13 12 12 12 10 11 11 11 10 11 11 11 11 12 10 12 11 10 10 10 10 11
20 20 20 19 19 18 17 16 15 15 14 12 12 13 11 10 10 10 11 10 11 11 11 11 11 11 10 10 10 10 10 10
20 19 19 19 19 19 17 16 15 15 14 12 11 11 10 10 10 10 10 11 11 10 10 10 11 10 11 11 10 10 10 10
20 19 17 18 19 18 17 16 16 14 14 12 12 12 10 10 10 10 10 10 11 11 10 10 10 9 10 11 10 10 10 10
20 20 20 20 15 18 18 17 16 15 14 13 11 10 10 10 10 10 10 10 10 10 10 9 9 9 8 11 11 10 10 11
20 21 18 18 17 14 17 17 16 15 14 13 11 10 10 9 9 9 10 10 10 10 10 9 9 9 9 9 10 11 10 10
20 18 17 17 17 15 16 17 16 16 15 13 12 10 10 10 10 9 9 9 10 10 10 10 9 9 9 8 9 10 10 10
19 19 20 19 17 17 16 17 15 16 15 14 12 11 10 9 9 10 9 9 9 10 10 10 10 9 9 9 9 10 10 10
17 19 19 19 16 18 17 17 15 16 15 14 12 11 10 9 10 10 10 10 9 9 10 9 9 9 9 9 9 10 10 10
16 17 17 15 14 13 16 16 15 16 15 14 12 10 10 9 10 10 10 10 10 10 9 9 9 9 9 9 9 9 9 9
14 14 13 12 11 10 13 14 14 15 14 14 12 11 10 9 9 9 10 10 10 9 10 9 9 9 9 9 9 9 9 9
10 12 11 10 10 10 10 11 12 14 14 13 12 11 11 9 9 9 9 10 10 10 10 9 9 9 9 9 9 9 9 10
7 9 9 9 10 10 10 11 12 13 13 12 12 11 11 9 8 9 8 9 9 9 10 10 10 10 9 9 9 9 9 9
5 6 6 8 9 9 9 10 10 11 11 11 10 11 10 10 10 9 9 8 8 9 9 9 9 9 9 9 9 9 9 9
3 3 5 6 7 8 9 9 10 10 10 10 10 10 10 10 10 9 10 10 9 8 8 9 9 9 9 9 9 9 9 9
4 4 5 5 6 6 7 8 9 10 9 9 9 9 9 9 9 10 10 10 10 9 9 9 9 9 9 9 9 8 8 8
2 4 5 7 7 5 6 6 8 8 8 9 9 9 9 9 9 9 9 9 9 9 9 9 10 10 10 9 9 9 9 9
3 3 4 6 5 3 4 6 7 7 8 8 8 8 9 9 9 9 9 9 9 9 9 9 9 9 9 9 9 9 9 9

GFSFLT1_850_temp_093.txt.gz
Temp
21 20 20 20 20 18 18 17 17 15 14 13 12 12 10 10 11 11 11 10 11 10 10 10 10 10 10 10 10 10 11 11
20 20 20 21 20 19 18 18 17 15 14 13 11 11 11 10 10 11 10 10 11 11 10 11 11 10 11 10 10 10 10 11
20 20 20 21 20 19 18 18 17 16 14 13 13 13 11 10 11 11 10 10 10 10 10 10 11 11 11 10 10 10 10 11
19 19 20 20 20 19 19 19 17 16 14 13 12 12 10 10 10 10 11 10 10 11 11 11 11 11 11 10 10 10 10 10
17 18 19 20 20 17 18 18 17 16 15 13 12 14 11 10 10 10 10 11 10 11 11 11 11 11 11 10 10 10 11 10
15 17 18 20 18 17 17 17 16 16 15 13 13 13 10 10 11 10 10 10 10 10 10 11 11 11 11 10 10 10 10 10
13 16 17 17 16 15 17 18 17 15 14 13 13 13 11 10 10 10 10 10 10 10 10 10 10 11 10 10 10 10 10 10
12 13 16 17 14 15 17 18 17 16 14 13 14 13 11 10 10 10 9 9 10 10 10 10 10 10 10 9 9 9 9 10
11 13 14 17 14 14 15 17 18 16 15 13 13 12 11 10 9 9 9 9 10 9 10 10 10 10 10 9 8 9 9 9
10 14 14 15 15 14 14 15 16 16 14 13 13 12 11 9 9 9 9 9 9 9 10 10 10 10 9 9 8 9 9 10
9 13 15 14 13 10 10 11 12 14 14 13 13 12 11 10 9 9 9 10 9 9 9 10 10 9 9 8 8 9 9 9
9 11 12 10 10 10 10 11 11 12 14 12 11 13 12 9 10 10 10 9 9 9 9 9 9 9 9 9 9 9 9 9
6 10 10 10 10 10 9 10 10 13 13 13 12 13 11 9 9 9 9 9 9 9 9 9 9 9 9 9 9 9 9 9
4 7 8 9 9 9 9 9 10 11 13 12 11 12 12 10 9 8 9 9 9 9 9 10 10 9 9 9 9 9 9 9
2 3 5 6 8 8 9 9 10 10 10 10 10 10 11 10 10 9 8 8 8 9 8 9 9 10 10 10 9 9 9 9
1 1 2 6 6 7 8 9 9 9 9 9 10 10 10 9 9 9 9 8 8 8 8 9 9 9 9 9 9 9 9 9
1 -1 2 2 3 5 6 7 9 9 9 9 9 9 9 9 9 9 9 9 9 9 9 8 9 9 9 9 9 9 9 9
1 1 1 1 2 3 5 6 7 7 8 7 8 9 9 9 9 9 9 9 9 9 9 9 9 9 9 9 9 9 9 9
1 3 3 2 2 2 4 6 8 8 7 4 7 8 8 8 8 8 8 8 8 8 8 8 8 9 9 9 9 9 9 9

GFSFLT1_850_temp_096.txt.gz
Temp
21 21 20 19 19 17 15 14 17 17 16 16 15 13 12 12 11 11 11 11 11 11 10 11 11 10 10 11 10 11 10 10
21 21 20 18 18 17 16 14 17 17 17 16 15 12 12 11 11 11 11 11 11 10 10 10 10 10 10 10 10 10 10 10
21 20 20 18 18 19 16 15 17 17 17 16 15 14 12 11 11 11 11 11 11 10 10 10 10 10 10 10 9 10 10 10
19 19 19 18 17 18 16 15 17 17 16 15 15 13 11 10 10 11 11 11 10 11 10 10 10 10 10 10 9 9 10 10
17 18 18 19 17 16 15 14 16 16 16 16 15 13 12 10 11 10 10 10 10 10 10 10 10 10 10 10 10 10 10 9
16 16 17 18 17 15 14 12 14 16 17 15 15 12 12 9 11 10 10 10 11 10 10 10 10 10 10 11 10 10 10 10
15 15 16 17 17 15 13 12 13 16 16 15 14 11 11 10 10 10 10 10 10 10 10 10 11 11 11 10 11 10 11 10
14 14 15 17 16 14 12 12 13 15 15 15 15 13 10 10 9 10 10 10 10 10 10 10 10 10 10 10 10 10 10 10
12 12 13 15 15 14 12 12 12 14 15 15 15 11 13 10 10 10 10 10 10 11 10 10 10 10 10 10 9 9 9 9
10 8 13 15 15 14 11 12 11 11 11 15 15 13 12 10 10 10 9 9 9 10 10 10 10 10 9 10 9 9 9 8
7 9 12 15 15 14 11 11 11 11 10 12 15 13 10 10 10 9 10 9 10 10 10 10 10 10 9 10 9 9 8 8
5 6 10 14 14 13 10 10 10 11 11 11 13 13 10 10 9 9 9 9 9 9 9 10 10 10 9 10 10 9 9 8
4 4 6 11 11 10 10 10 10 10 11 10 11 11 9 10 9 9 9 9 10 9 9 9 10 10 9 10 9 9 8 8
3 2 2 7 9 9 9 10 10 10 10 10 10 10 9 9 10 9 9 9 10 9 9 9 9 9 9 9 9 9 8 8
1 0 0 2 7 9 9 9 9 9 10 10 9 9 10 10 9 9 9 9 9 9 9 9 9 9 9 9 9 9 9 9
1 -1 -1 0 3 7 8 9 9 9 9 9 9 9 9 10 9 9 9 9 9 8 9 9 9 9 9 9 9 9 9 9
2 0 -1 -1 -0 2 5 8 8 8 9 9 9 9 9 9 9 9 9 9 8 8 8 9 9 8 9 9 8 9 9 9
-1 -0 0 -2 -1 0 3 4 5 6 7 7 8 8 8 9 9 9 9 9 9 9 8 8 8 9 9 9 9 9 8 8
-0 -0 -1 0 1 1 2 2 4 3 3 5 5 7 6 7 8 8 8 8 8 8 8 8 8 8 9 9 9 9 9 9

GFSFLT1_850_temp_099.txt.gz
Temp
23 23 23 23 22 22 20 17 15 16 17 16 17 16 15 15 13 12 11 12 12 12 12 11 11 11 12 11 12 11 11 12
23 23 23 23 21 21 20 18 16 15 16 16 16 16 15 14 13 11 11 11 12 12 12 11 11 11 11 12 11 11 11 11
23 23 22 22 22 20 20 18 16 15 15 16 15 15 14 12 13 11 11 11 12 12 11 11 11 11 10 11 11 11 11 11
21 21 21 21 21 20 19 19 17 15 15 13 13 12 12 11 12 11 11 11 12 11 11 11 10 10 10 10 11 10 10 11
19 19 19 20 20 21 19 19 18 16 13 14 14 13 12 12 12 11 11 11 11 11 11 10 10 10 10 10 10 10 10 11
18 18 18 19 20 20 19 18 18 16 13 15 14 14 13 12 12 11 12 11 11 10 10 10 10 10 10 10 10 10 11 11
17 17 17 18 19 19 19 17 17 15 14 14 13 14 14 13 11 11 11 11 11 10 10 10 10 10 10 10 10 10 10 10
15 15 15 15 17 19 18 16 13 12 12 13 14 14 14 13 11 11 11 11 11 11 10 10 9 9 10 10 10 10 10 10
13 12 12 12 15 18 18 16 12 12 12 13 13 14 13 13 11 11 11 11 10 10 10 10 10 10 10 10 10 10 10 10
11 10 8 11 13 17 17 14 11 11 11 12 13 13 13 12 11 11 10 10 10 10 10 10 10 10 10 10 10 10 9 9
8 6 5 8 14 17 17 14 12 11 11 11 12 12 12 12 11 11 11 10 10 10 10 10 10 9 10 9 10 9 9 9
5 3 5 9 13 17 13 13 11 11 10 10 12 11 11 11 11 10 10 10 10 10 10 10 10 10 10 10 10 9 9 8
3 2 3 7 9 11 11 12 11 10 10 10 11 11 10 10 10 10 10 10 10 10 10 10 10 10 10 10 9 9 9 9
2 3 1 2 6 9 10 10 10 10 10 10 10 10 10 10 10 10 10 10 9 9 9 10 10 10 10 10 9 9 9 9
1 2 1 -0 2 4 8 9 10 10 10 10 10 10 9 9 9 10 10 10 10 9 9 9 10 10 10 10 9 9 9 9
-1 -1 2 0 -0 1 4 8 9 9 10 9 9 9 9 9 9 10 10 10 10 10 10 9 9 9 9 9 9 9 9 9
-1 -1 0 1 -1 -1 0 2 6 8 9 9 9 9 8 9 9 9 9 9 9 9 9 9 9 9 9 9 9 9 9 9
-1 -1 -1 -0 0 -0 -0 -0 1 4 6 7 8 8 9 9 9 9 9 9 8 8 8 8 8 9 9 9 9 9 8 9
-1 -1 -0 -1 -0 0 0 0 0 1 2 3 4 4 6 8 9 9 9 9 9 8 8 8 8 8 9 9 9 8 8 8

GFSFLT1_850_temp_102.txt.gz
Temp
24 24 24 24 24 24 21 21 21 20 18 15 14 14 15 15 13 13 13 13 13 13 13 13 12 12 12 12 12 12 11 12
24 24 24 24 24 23 22 20 20 20 18 17 14 15 15 16 15 13 12 13 13 13 12 12 12 11 11 12 12 12 11 11
23 23 23 23 23 23 22 20 19 20 18 17 14 13 15 16 15 14 13 13 12 12 12 12 12 11 11 11 11 11 11 11
23 23 22 22 22 22 22 21 19 19 18 15 13 13 12 13 12 13 12 12 12 12 12 12 10 11 11 11 11 11 11 10
21 20 20 20 20 20 21 21 20 18 18 16 13 13 13 12 12 12 12 12 12 12 12 11 11 10 10 10 11 11 10 10
18 18 18 19 19 19 20 20 20 19 18 17 15 13 13 13 12 12 12 12 12 11 11 11 10 10 10 10 10 10 10 10
16 16 16 16 17 17 18 19 19 19 18 17 15 14 14 13 12 12 12 12 12 12 11 11 10 10 10 10 10 10 10 10
14 14 13 12 13 15 16 18 19 18 18 16 15 14 14 14 13 13 13 13 12 11 11 11 10 10 10 10 10 10 10 10
12 10 9 8 9 11 14 16 18 17 16 15 15 14 14 14 14 13 12 13 13 11 11 10 10 10 10 10 10 10 10 9
9 7 5 5 6 10 13 17 16 17 15 14 14 14 14 14 13 12 12 12 12 11 10 10 9 9 9 10 10 10 10 10
7 4 3 5 7 9 15 17 16 16 14 13 13 14 14 13 13 12 11 11 11 11 10 10 10 9 9 10 10 10 10 10
4 2 3 5 7 9 13 14 14 14 13 12 13 12 13 12 12 11 11 11 11 10 10 10 10 10 9 9 10 10 9 10
2 0 1 4 6 9 10 11 12 13 13 12 12 12 12 12 11 11 11 11 11 11 11 10 10 10 10 9 10 10 10 10
0 -0 -0 2 3 6 8 10 11 11 11 11 11 11 11 11 10 11 10 10 10 10 10 10 10 10 9 9 10 10 10 9
-1 -1 -1 0 2 2 5 7 9 10 10 10 11 11 10 10 10 10 10 10 10 10 10 10 9 9 10 9 10 9 9 9
-1 -1 -1 -1 1 2 2 3 6 8 9 10 10 10 10 9 10 10 10 10 10 9 9 9 9 9 9 9 9 9 9 9
-2 -1 -1 -0 -0 2 1 0 2 4 6 8 9 9 9 9 9 10 10 10 10 10 9 10 9 9 9 9 9 9 9 9
-2 -2 -2 -1 -0 -1 2 0 0 1 3 4 6 7 8 9 9 9 10 9 9 10 10 10 10 9 9 9 9 9 9 9
-2 -2 -2 -2 -1 0 -0 1 0 0 1 1 2 3 5 6 8 8 8 9 8 8 8 8 9 9 9 9 9 9 9 9

GFSFLT1_850_temp_105.txt.gz
Temp
23 23 23 24 24 23 23 22 22 21 19 19 19 15 15 16 16 16 15 15 14 13 13 13 13 13 13 12 12 12 13 12
23 23 24 24 24 23 23 21 21 20 18 18 18 17 14 14 14 15 15 14 14 14 13 13 13 12 12 12 12 12 12 11
23 23 24 24 24 23 22 22 21 20 20 19 18 17 14 13 13 14 14 14 14 14 14 13 12 12 12 11 12 11 11 11
22 21 21 21 21 20 20 21 20 21 20 19 17 16 13 13 13 13 13 14 13 13 13 12 12 12 12 12 12 11 11 11
19 18 18 18 18 19 18 18 19 20 20 19 20 19 17 13 12 13 13 13 12 12 12 12 12 12 12 11 11 11 10 11
15 15 15 16 17 17 18 17 16 19 19 19 19 19 17 16 13 12 12 12 12 11 11 11 11 11 11 11 10 11 11 11
13 14 15 16 16 17 17 17 18 14 18 19 18 18 18 15 13 13 12 12 12 11 11 11 11 11 11 10 10 11 10 10
11 12 14 15 15 16 17 17 17 15 15 18 18 18 17 16 14 14 12 12 12 12 12 11 11 11 10 10 10 10 10 10
8 8 9 10 12 13 14 16 16 14 13 17 18 17 15 15 14 14 13 13 13 12 12 11 11 11 10 10 10 10 10 10
4 5 6 7 8 9 9 12 15 15 13 15 17 16 14 14 14 14 13 13 13 12 11 11 11 12 11 10 10 10 10 10
3 3 3 4 5 7 8 9 14 15 16 14 16 16 15 14 14 14 13 13 13 12 11 10 11 12 11 10 10 10 10 10
0 -0 1 2 4 5 7 9 12 12 13 15 15 15 15 13 14 14 13 13 12 11 10 10 11 11 11 10 10 10 10 10
0 -0 -1 0 2 4 6 9 11 11 12 12 13 14 14 13 13 13 13 12 11 10 10 9 10 11 11 10 10 10 10 10
-1 -0 -1 -1 0 3 4 7 10 11 11 11 11 12 12 12 12 12 12 11 11 10 10 10 10 10 11 10 10 10 10 10
-1 -1 -1 -1 -1 -0 2 3 6 9 10 11 11 11 12 11 11 11 11 11 10 10 9 10 10 9 10 10 9 9 10 9
-2 -1 -1 -1 -0 -0 1 2 3 5 7 9 10 10 10 10 10 10 10 10 10 10 10 10 9 9 9 9 10 9 9 9
-2 -2 -2 -1 -1 -1 -0 1 2 3 3 5 6 9 10 10 10 10 10 9 9 9 9 9 8 9 9 9 9 9 9 9
-3 -3 -3 -2 -1 -1 -1 0 1 2 2 2 2 5 8 9 10 9 9 9 9 9 9 9 9 9 9 9 9 9 9 9
-3 -4 -4 -3 -2 -1 -1 -0 0 0 2 1 1 1 3 6 7 8 9 8 8 9 8 8 7 8 9 9 9 9 9 9

GFSFLT1_850_temp_111.txt.gz
Temp
21 22 22 21 21 21 21 21 22 21 20 19 18 17 16 17 17 17 17 16 15 15 14 13 13 13 12 12 12 12 12 12
21 21 21 20 21 21 22 21 22 21 20 19 19 17 17 17 16 16 16 16 16 15 14 13 13 13 13 12 12 12 12 12
17 19 19 20 19 19 19 21 22 22 21 21 20 19 17 16 15 15 15 16 16 15 15 13 13 12 12 12 12 12 12 12
13 15 16 16 17 18 20 20 20 20 19 16 17 17 16 16 15 15 15 15 15 15 15 14 13 12 12 12 12 11 12 12
10 10 12 14 14 14 14 14 15 16 15 15 17 18 18 18 17 16 15 14 14 14 14 14 13 12 12 11 11 11 11 11
7 8 8 12 12 12 13 13 13 14 14 14 14 15 17 18 16 16 16 15 14 13 13 12 13 12 12 12 11 11 10 10
4 5 7 11 11 12 11 12 13 13 13 14 14 16 18 18 17 17 17 16 14 13 12 12 12 12 12 12 10 11 10 10
3 3 5 9 11 12 13 13 13 13 13 13 14 14 16 17 18 17 17 16 15 15 12 12 11 11 11 11 10 11 10 10
-0 1 1 5 7 10 12 13 14 14 14 13 13 13 14 14 16 16 16 16 16 16 15 13 12 11 11 11 10 10 10 10
-1 -0 1 3 5 7 8 10 13 14 15 16 15 15 16 16 16 16 16 16 15 15 14 13 11 11 11 11 10 10 10 10
-1 -1 -0 1 2 5 6 7 7 8 10 14 16 16 15 16 16 16 16 16 15 14 14 13 11 12 11 11 11 10 10 10
-1 0 0 2 3 5 5 6 7 8 9 10 11 12 13 12 12 14 15 15 15 14 14 13 13 11 11 11 10 10 10 10
-1 0 0 1 2 2 4 5 5 6 8 9 10 11 11 12 13 13 14 15 15 14 13 13 12 12 11 10 10 9 10 10
-2 -1 -1 0 0 0 1 3 4 5 7 8 9 11 11 11 12 12 13 14 14 13 12 12 12 12 10 10 9 9 9 9
-3 -3 -2 -1 -0 -0 0 1 2 4 5 6 8 9 10 10 11 11 11 12 12 12 12 11 11 12 10 9 9 9 9 9
-4 -3 -3 -2 -1 -1 0 0 1 1 4 5 6 6 7 9 10 10 11 10 11 12 11 10 11 9 9 9 9 9 9 9
-5 -4 -3 -3 -3 -2 -1 -1 -0 1 1 2 4 4 5 7 8 9 9 10 10 10 10 9 10 9 9 9 9 9 9 9
-5 -5 -4 -4 -3 -3 -1 -1 0 0 0 0 1 2 3 4 5 6 6 8 9 9 9 9 9 9 9 9 9 9 9 9
-6 -5 -5 -4 -4 -3 -2 -0 -0 -0 -0 -0 -0 0 1 1 2 3 3 3 3 7 7 7 8 8 9 9 9 9 8 9

GFSFLT1_850_temp_114.txt.gz
Temp
17 18 19 20 19 20 20 20 21 20 19 18 17 18 18 19 18 17 17 17 16 15 15 15 14 14 13 13 13 12 12 12
15 17 18 18 17 18 19 20 20 20 18 18 17 18 19 18 18 17 17 16 16 15 15 14 14 14 13 13 12 12 12 12
15 15 17 18 18 17 17 19 19 19 19 18 18 18 18 18 18 17 16 16 16 15 15 15 14 13 13 12 12 12 12 11
12 12 13 16 17 17 17 18 18 18 19 18 17 16 16 16 16 17 17 16 15 15 15 15 14 13 13 13 12 12 11 11
6 9 10 12 14 16 17 19 18 17 16 16 16 16 17 18 18 17 16 16 15 15 14 14 14 12 13 12 12 12 12 11
3 4 6 8 10 11 13 14 17 15 13 13 15 14 16 17 17 16 16 16 16 15 15 14 14 12 13 11 11 12 12 12
1 2 4 7 8 10 11 11 12 13 12 13 13 13 14 16 15 16 17 17 17 16 15 14 13 13 12 12 12 11 11 11
-0 1 2 5 7 9 9 10 11 12 12 12 13 13 13 14 15 17 18 18 17 17 16 15 13 12 12 12 12 12 11 11
-1 -1 0 1 3 7 8 10 11 12 12 12 12 12 13 14 15 15 17 17 17 17 16 15 14 13 12 12 11 11 11 11
-2 -1 -0 1 2 4 6 7 9 10 11 12 12 12 13 13 13 13 16 17 16 16 15 15 14 13 12 12 11 11 11 10
-2 -2 -0 1 2 2 4 5 7 8 9 10 12 13 13 13 13 14 15 16 17 16 16 14 14 13 12 11 11 11 11 10
-3 -2 -1 -0 1 1 3 5 7 8 9 9 9 10 12 13 13 12 12 13 13 14 14 13 14 13 12 11 10 11 10 10
-3 -2 -1 0 0 -1 2 3 5 6 7 8 9 9 10 10 10 11 11 12 12 13 14 14 14 14 12 11 11 11 10 10
-3 -3 -3 -2 -1 0 1 3 3 4 5 7 8 9 9 10 10 11 11 11 12 12 12 14 14 14 12 11 12 11 9 10
-3 -2 -3 -2 -1 -1 0 0 1 2 3 5 6 7 8 9 9 10 10 10 10 11 11 12 13 13 12 11 10 9 9 9
-5 -5 -4 -3 -1 -1 -1 -0 0 1 2 3 3 4 5 7 8 9 10 10 9 10 10 11 11 11 11 10 9 9 9 8
-5 -6 -5 -5 -4 -2 -1 -1 -1 -0 0 1 1 2 4 5 6 7 7 8 9 9 10 9 9 10 10 11 9 9 9 8
-6 -6 -6 -6 -5 -3 -2 -2 -1 -1 -0 -0 0 1 1 2 3 4 4 5 5 6 6 8 8 7 9 9 9 9 9 9
-6 -6 -5 -5 -5 -4 -3 -2 -2 -1 -1 -1 -0 -0 0 0 1 1 2 3 3 4 4 4 5 6 8 9 8 8 9 9

GFSFLT1_850_temp_117.txt.gz
Temp
12 13 15 15 16 17 18 19 19 19 18 18 18 18 18 18 18 18 18 18 18 16 15 15 15 14 14 13 13 13 13 13
11 12 14 16 16 16 15 16 18 18 18 17 17 17 17 17 18 17 17 18 18 17 15 15 14 14 14 14 13 13 12 12
11 11 13 14 16 16 13 14 16 18 19 18 17 18 17 17 17 17 17 17 17 17 17 15 14 14 14 13 13 13 12 12
6 6 10 11 13 13 13 14 15 17 18 17 17 18 16 16 17 17 17 17 17 17 17 16 15 14 14 13 13 13 12 12
2 4 5 8 10 11 13 14 14 15 17 18 18 19 18 18 18 17 17 16 17 16 16 16 15 14 14 13 13 12 12 11
1 1 2 4 7 8 10 12 14 14 15 15 17 17 17 17 17 16 16 16 16 16 16 16 15 15 14 13 12 12 12 12
-0 -0 1 3 5 8 9 10 12 13 13 14 14 14 14 14 15 16 16 17 17 16 17 16 16 15 14 14 12 11 11 12
-1 -1 1 2 4 6 8 9 10 10 11 12 12 12 13 13 13 14 14 16 17 17 17 17 16 16 15 14 13 11 11 11
-1 -2 -1 1 2 4 7 8 9 10 11 11 12 12 12 13 13 13 13 14 17 17 15 17 17 16 15 14 13 12 12 12
-2 -3 -2 0 1 3 5 6 8 9 10 11 11 12 12 12 12 12 13 13 15 17 16 17 16 16 15 14 13 12 12 12
-3 -3 -3 -2 0 2 4 5 6 7 7 9 10 11 11 12 12 12 12 12 13 13 16 16 16 15 15 13 13 12 12 12
-4 -4 -4 -3 -1 1 3 4 5 6 7 7 8 8 9 10 11 12 12 12 13 15 15 14 15 15 15 13 12 12 12 11
-4 -4 -4 -3 -1 0 1 3 4 5 5 6 7 8 8 9 9 10 11 11 11 11 11 11 12 14 14 14 13 12 12 11
-5 -5 -5 -3 -2 -1 0 0 1 2 4 5 6 7 8 8 9 9 10 10 10 11 10 11 12 12 12 13 12 11 11 11
-6 -6 -4 -3 -3 -1 -0 -0 0 0 2 4 4 5 6 7 8 9 9 10 10 10 10 10 10 10 11 11 11 11 11 11
-6 -6 -6 -4 -3 -2 -1 -0 -1 -0 1 2 2 3 3 5 6 7 8 8 9 9 9 9 9 9 10 10 10 10 11 11
-7 -7 -7 -6 -4 -3 -2 -1 -1 -0 -0 -0 0 1 2 3 4 4 5 6 6 8 8 8 9 9 9 10 10 10 9 9
-7 -7 -7 -7 -6 -4 -3 -2 -1 -0 -0 -1 -1 -0 0 1 1 2 3 3 4 4 5 5 5 6 7 9 9 9 9 9
-7 -7 -7 -7 -7 -5 -4 -3 -2 -2 -1 -1 -1 -1 -1 -1 -0 -0 1 1 1 2 3 3 3 4 6 6 7 8 8 8

GFSFLT1_850_temp_120.txt.gz
Temp
13 13 13 14 15 16 15 16 15 14 14 18 17 15 18 15 14 15 18 17 17 16 15 15 15 15 14 14 14 12 13 13
13 12 13 13 13 12 14 16 16 14 14 14 14 14 15 15 14 14 17 17 17 16 16 15 15 15 15 14 14 13 13 13
12 12 12 10 9 9 11 15 16 15 14 15 15 16 15 14 14 14 16 18 17 16 16 16 15 15 15 14 13 13 13 13
7 8 8 7 7 7 9 13 17 15 14 14 14 14 14 13 14 14 18 18 17 16 16 16 16 15 15 15 15 13 13 13
2 2 2 3 3 5 6 9 14 15 13 14 15 15 16 15 17 16 18 17 16 16 16 16 16 16 15 15 14 14 12 13
0 0 0 0 3 5 6 8 13 14 14 13 15 15 15 14 14 16 18 18 17 17 16 16 16 16 16 15 15 14 13 12
-1 -1 -1 -0 1 3 6 7 12 14 14 14 14 14 14 14 16 16 18 18 17 17 16 16 17 16 16 15 15 14 14 13
-2 -2 -1 -1 -1 2 5 6 9 11 13 13 14 15 13 13 14 13 14 17 17 17 16 16 17 17 16 15 15 14 13 12
-3 -3 -3 -2 -2 -0 5 5 8 9 10 11 13 14 13 13 14 14 13 13 14 15 15 14 15 15 15 14 14 14 13 12
-4 -4 -3 -3 -3 -1 4 4 6 8 10 11 12 12 13 12 12 13 12 13 13 13 13 13 14 17 16 13 13 15 13 12
-5 -4 -5 -4 -3 -2 2 2 5 6 8 8 10 11 11 11 12 12 12 12 12 13 13 13 15 14 14 16 13 15 15 13
-5 -5 -5 -5 -4 -2 -1 1 4 5 6 7 7 8 9 10 10 11 11 11 12 12 12 12 12 13 15 16 14 14 15 13
-6 -6 -5 -5 -4 -3 0 2 3 3 4 5 7 7 8 8 9 9 9 11 10 11 11 11 11 12 13 12 14 14 13 13
-5 -6 -6 -5 -4 -3 -3 -1 1 3 4 5 5 6 7 7 8 8 9 9 9 10 11 11 11 11 11 11 11 12 11 12
-6 -6 -6 -5 -5 -4 -3 -2 -2 -1 1 2 3 4 4 5 6 7 8 8 9 10 10 10 10 10 10 10 10 10 11 11
-6 -6 -7 -6 -5 -3 -3 -2 -1 -1 -0 0 0 1 2 3 4 5 5 6 7 8 9 9 9 10 10 10 10 10 10 10
-7 -7 -7 -7 -7 -6 -4 -3 -1 -1 -1 -1 -0 0 0 1 2 2 3 3 4 4 6 6 7 8 8 9 9 9 10 10
-8 -8 -8 -7 -7 -6 -4 -5 -4 -2 -2 -1 -1 -0 -0 -0 0 1 1 1 2 2 3 3 4 4 5 7 8 8 8 8
-8 -8 -8 -7 -7 -7 -7 -5 -3 -2 -2 -1 -1 -1 -1 -0 0 0 -0 0 0 0 1 1 2 2 3 4 5 5 5 7

GFSFLT1_850_temp_123.txt.gz
Temp
13 14 15 15 15 15 15 16 17 17 15 15 14 15 14 14 15 15 18 16 14 15 15 15 16 14 15 14 14 13 13 14
9 10 12 13 14 14 14 14 16 16 16 15 14 14 14 15 16 16 16 18 16 15 15 15 15 14 15 15 15 13 14 13
4 5 7 10 10 11 12 12 12 13 15 15 15 14 15 16 17 16 15 18 18 15 16 16 16 14 15 15 15 14 13 13
1 1 2 4 4 5 8 9 10 11 14 16 15 15 16 16 16 16 15 15 17 16 16 16 16 15 16 14 15 15 13 13
-1 -1 -0 0 1 1 6 4 8 10 11 14 16 15 16 17 17 16 15 14 16 17 16 16 16 15 16 15 15 15 14 13
-1 -2 -2 -1 -0 0 2 4 5 8 12 14 15 15 17 16 16 16 16 14 14 17 17 16 16 16 16 15 15 14 15 13
-2 -3 -3 -2 -1 -1 1 3 4 7 10 14 16 15 16 17 16 16 15 14 14 13 16 17 17 17 16 15 14 14 15 14
-3 -4 -3 -3 -2 -2 -0 1 4 8 9 12 13 13 14 15 15 15 14 14 14 13 13 14 16 17 16 15 15 14 14 14
-5 -5 -4 -4 -4 -3 -2 -0 2 7 7 10 12 13 13 13 14 12 14 14 13 13 13 13 14 14 15 13 14 13 12 12
-5 -5 -5 -5 -4 -3 -2 -1 1 5 6 8 9 10 10 11 12 12 13 13 13 13 13 13 14 14 14 14 13 13 13 13
-5 -5 -6 -5 -5 -4 -3 -2 0 4 6 6 7 9 9 10 10 12 12 12 12 13 13 12 13 13 13 13 13 13 13 13
-5 -5 -6 -6 -5 -4 -3 -3 1 3 2 2 5 6 7 9 11 11 11 12 12 13 12 12 13 12 13 13 13 13 12 14
-5 -6 -6 -6 -5 -5 -3 -1 -0 1 2 4 5 6 10 9 8 9 10 10 10 11 11 11 11 11 12 13 12 13 13 13
-5 -6 -6 -6 -6 -5 -5 -4 1 3 0 2 3 4 4 4 6 7 8 8 9 9 10 11 11 11 11 11 11 11 11 11
-6 -6 -6 -6 -6 -6 -5 -4 -3 -3 -3 -3 -0 2 2 4 4 5 6 7 8 8 9 9 10 10 10 10 11 11 11 11
-6 -6 -6 -6 -6 -6 -5 -3 -3 -3 -3 -2 -2 -0 1 2 3 3 4 5 5 5 6 7 8 9 9 10 10 10 10 10
-6 -7 -7 -7 -7 -6 -6 -5 -4 -3 -1 -1 -2 0 1 1 2 2 3 3 3 4 4 5 5 6 6 7 8 8 9 9
-7 -7 -7 -7 -7 -7 -7 -6 -3 -2 -1 -1 0 0 0 -0 -1 0 1 1 2 3 3 3 4 4 5 5 6 6 6 7
-6 -7 -7 -7 -7 -7 -7 -5 -4 -3 -3 -2 -0 -1 -2 -1 -1 -1 -1 -0 -0 0 0 1 1 2 2 3 3 3 3 3

GFSFLT1_850_temp_126.txt.gz
Temp
7 6 6 8 9 11 12 13 14 15 16 16 16 16 15 15 15 16 14 15 15 15 15 15 15 15 14 14 14 14 14 14
6 4 3 4 7 7 10 11 13 13 14 15 15 15 15 15 15 15 15 16 16 14 15 15 15 14 14 14 14 14 14 14
4 3 1 0 2 3 5 8 10 11 11 12 13 13 14 15 14 15 15 17 17 15 14 14 16 15 14 14 13 14 14 14
2 1 0 -1 -1 3 2 6 7 9 10 11 11 12 12 14 14 15 15 16 16 17 16 14 15 16 14 13 13 14 13 13
0 -1 -1 -2 -2 -2 1 -0 6 7 9 10 10 9 10 13 14 15 16 16 17 17 16 14 15 15 15 14 13 14 14 13
-1 -2 -3 -3 -3 -3 -2 -1 2 6 6 9 10 12 13 12 14 15 16 16 16 16 16 14 14 15 16 15 13 14 14 13
-3 -4 -4 -4 -4 -3 -2 -1 0 3 3 6 7 10 13 12 14 16 16 15 15 16 16 13 14 13 16 16 14 13 14 13
-4 -5 -5 -5 -5 -4 -3 -1 -0 1 3 4 6 8 10 12 13 16 16 15 14 16 15 13 14 13 14 14 14 13 13 13
-4 -5 -5 -5 -5 -4 -3 -2 -1 1 3 4 7 8 11 12 12 12 16 15 14 14 15 14 14 14 13 13 13 13 13 13
-4 -5 -5 -5 -4 -4 -3 -2 -1 -1 1 2 8 9 9 12 11 13 10 13 13 14 14 14 14 13 13 14 13 13 13 12
-5 -5 -6 -5 -5 -4 -3 -3 -2 -2 -0 1 7 8 9 10 11 12 10 10 12 12 13 13 13 13 13 13 13 13 13 12
-5 -5 -6 -5 -5 -5 -4 -4 -3 -2 -2 1 7 7 8 9 9 9 10 10 11 12 12 12 13 12 12 12 12 12 12 12
-5 -6 -6 -6 -5 -5 -5 -4 -3 -3 -1 3 4 3 4 6 8 9 9 10 11 10 11 12 11 12 12 12 12 12 12 12
-5 -6 -6 -6 -5 -6 -5 -4 -4 -3 -0 2 4 3 2 5 6 8 9 9 9 9 9 10 11 11 11 11 11 11 11 11
-6 -6 -6 -6 -5 -6 -6 -5 -4 -4 -2 -1 4 1 0 0 3 4 7 8 8 8 9 8 9 10 10 10 10 10 10 10
-6 -6 -6 -6 -6 -5 -6 -4 -3 -3 -2 -1 -0 2 1 0 2 3 3 5 5 5 6 7 7 7 7 8 8 9 9 9
-6 -6 -6 -6 -6 -6 -6 -6 -3 -2 -3 -5 -4 -2 -2 -2 -1 -1 -0 1 2 3 3 3 4 4 4 6 7 7 6 7
-5 -5 -6 -6 -6 -5 -6 -6 -6 -4 -2 -2 -2 -3 -4 -3 -3 -1 -1 0 0 1 1 1 1 2 2 3 4 4 4 4
-4 -5 -5 -5 -6 -6 -5 -5 -5 -4 -3 -3 -2 -3 -3 -3 -2 -1 -1 -1 -1 -0 1 1 1 1 1 2 2 2 1 2